Time,TemperatureF,DewpointF,PressureIn,WindDirection,WindDirectionDegrees,WindSpeedMPH,WindSpeedGustMPH,Humidity,HourlyPrecipIn,Conditions,Clouds,dailyrainin,SoftwareType,DateUTC
2013-05-08 00:00:00,59.1,50.5,30.09,East,80,0.0,2.0,73,0.00,,,0.00,Wunderground v.1.15,2013-05-08 04:00:00,
2013-05-08 00:01:00,58.9,50.3,30.09,East,80,0.0,2.0,73,0.00,,,0.00,Wunderground v.1.15,2013-05-08 04:01:00,
2013-05-08 00:02:00,58.8,50.5,30.09,East,80,0.0,2.0,74,0.00,,,0.00,Wunderground v.1.15,2013-05-08 04:02:00,
2013-05-08 00:04:00,58.7,50.4,30.09,ENE,57,0.0,2.0,74,0.00,,,0.00,Wunderground v.1.15,2013-05-08 04:04:00,
2013-05-08 00:05:00,58.7,50.4,30.09,ENE,61,0.0,2.0,74,0.00,,,0.00,Wunderground v.1.15,2013-05-08 04:05:00,
2013-05-08 00:07:00,58.6,50.7,30.09,ENE,61,0.0,2.0,75,0.00,,,0.00,Wunderground v.1.15,2013-05-08 04:07:00,
2013-05-08 00:08:00,58.5,50.6,30.09,ENE,61,0.0,2.0,75,0.00,,,0.00,Wunderground v.1.15,2013-05-08 04:08:00,
2013-05-08 00:11:00,58.1,49.9,30.09,ENE,61,0.0,0.0,74,0.00,,,0.00,Wunderground v.1.15,2013-05-08 04:11:00,
2013-05-08 00:13:00,57.9,50.4,30.09,East,82,2.0,2.0,76,0.00,,,0.00,Wunderground v.1.15,2013-05-08 04:13:00,
2013-05-08 00:14:00,57.8,50.6,30.09,East,82,0.0,2.0,77,0.00,,,0.00,Wunderground v.1.15,2013-05-08 04:14:00,
2013-05-08 00:16:00,57.8,51.0,30.09,East,82,0.0,2.0,78,0.00,,,0.00,Wunderground v.1.15,2013-05-08 04:16:00,
2013-05-08 00:18:00,58.0,51.2,30.09,ENE,71,0.0,2.0,78,0.00,,,0.00,Wunderground v.1.15,2013-05-08 04:18:00,
2013-05-08 00:19:00,58.0,50.8,30.09,ENE,78,0.0,2.0,77,0.00,,,0.00,Wunderground v.1.15,2013-05-08 04:19:00,
2013-05-08 00:21:00,58.1,50.9,30.09,ENE,78,0.0,0.0,77,0.00,,,0.00,Wunderground v.1.15,2013-05-08 04:21:00,
2013-05-08 00:23:00,58.1,50.9,30.09,ENE,78,0.0,0.0,77,0.00,,,0.00,Wunderground v.1.15,2013-05-08 04:23:00,
2013-05-08 00:25:00,58.0,50.8,30.09,ENE,78,1.0,1.0,77,0.00,,,0.00,Wunderground v.1.15,2013-05-08 04:25:00,
2013-05-08 00:27:00,57.9,51.1,30.09,ENE,78,0.0,1.0,78,0.00,,,0.00,Wunderground v.1.15,2013-05-08 04:27:00,
2013-05-08 00:29:00,57.9,51.1,30.09,ENE,78,0.0,2.0,78,0.00,,,0.00,Wunderground v.1.15,2013-05-08 04:29:00,
2013-05-08 00:30:00,57.8,50.6,30.09,ENE,78,0.0,0.0,77,0.00,,,0.00,Wunderground v.1.15,2013-05-08 04:30:00,
2013-05-08 00:32:00,57.6,50.8,30.09,ENE,78,0.0,0.0,78,0.00,,,0.00,Wunderground v.1.15,2013-05-08 04:32:00,
2013-05-08 00:33:00,57.5,51.0,30.09,ENE,78,0.0,0.0,79,0.00,,,0.00,Wunderground v.1.15,2013-05-08 04:33:00,
2013-05-08 00:35:00,57.6,51.1,30.09,ENE,78,0.0,0.0,79,0.00,,,0.00,Wunderground v.1.15,2013-05-08 04:35:00,
2013-05-08 00:36:00,57.6,50.8,30.09,ENE,78,0.0,0.0,78,0.00,,,0.00,Wunderground v.1.15,2013-05-08 04:36:00,
2013-05-08 00:39:00,57.5,51.0,30.09,ENE,78,0.0,0.0,79,0.00,,,0.00,Wunderground v.1.15,2013-05-08 04:39:00,
2013-05-08 00:40:00,57.5,50.7,30.09,ENE,78,0.0,0.0,78,0.00,,,0.00,Wunderground v.1.15,2013-05-08 04:40:00,
2013-05-08 00:43:00,57.4,50.9,30.09,ENE,78,0.0,0.0,79,0.00,,,0.00,Wunderground v.1.15,2013-05-08 04:43:00,
2013-05-08 00:44:00,57.4,50.9,30.09,NNE,16,0.0,0.0,79,0.00,,,0.00,Wunderground v.1.15,2013-05-08 04:44:00,
2013-05-08 00:47:00,57.5,50.7,30.09,SE,140,0.0,0.0,78,0.00,,,0.00,Wunderground v.1.15,2013-05-08 04:47:00,
2013-05-08 00:49:00,57.6,50.8,30.09,ENE,69,0.0,0.0,78,0.00,,,0.00,Wunderground v.1.15,2013-05-08 04:49:00,
2013-05-08 00:52:00,57.7,50.5,30.09,East,84,1.0,1.0,77,0.00,,,0.00,Wunderground v.1.15,2013-05-08 04:52:00,
2013-05-08 00:53:00,57.8,50.6,30.09,East,90,0.0,1.0,77,0.00,,,0.00,Wunderground v.1.15,2013-05-08 04:53:00,
2013-05-08 00:54:00,57.8,50.6,30.09,SSE,151,0.0,1.0,77,0.00,,,0.00,Wunderground v.1.15,2013-05-08 04:54:00,
2013-05-08 00:55:00,57.8,50.6,30.09,NW,312,0.0,1.0,77,0.00,,,0.00,Wunderground v.1.15,2013-05-08 04:55:00,
2013-05-08 00:59:00,57.7,50.5,30.09,ENE,62,0.0,1.0,77,0.00,,,0.00,Wunderground v.1.15,2013-05-08 04:59:00,
2013-05-08 01:00:00,57.6,50.4,30.09,ENE,58,0.0,0.0,77,0.00,,,0.00,Wunderground v.1.15,2013-05-08 05:00:00,
2013-05-08 01:01:00,57.5,50.3,30.09,ENE,77,0.0,0.0,77,0.00,,,0.00,Wunderground v.1.15,2013-05-08 05:01:00,
2013-05-08 01:02:00,57.5,50.7,30.08,ENE,65,0.0,0.0,78,0.00,,,0.00,Wunderground v.1.15,2013-05-08 05:02:00,
2013-05-08 01:06:00,57.3,50.5,30.09,East,87,0.0,3.0,78,0.00,,,0.00,Wunderground v.1.15,2013-05-08 05:06:00,
2013-05-08 01:07:00,57.3,50.5,30.08,East,87,0.0,3.0,78,0.00,,,0.00,Wunderground v.1.15,2013-05-08 05:07:00,
2013-05-08 01:10:00,56.9,50.5,30.08,East,80,0.0,1.0,79,0.00,,,0.00,Wunderground v.1.15,2013-05-08 05:10:00,
2013-05-08 01:11:00,56.8,50.4,30.08,East,92,2.0,2.0,79,0.00,,,0.00,Wunderground v.1.15,2013-05-08 05:11:00,
2013-05-08 01:12:00,56.8,50.7,30.08,East,92,0.0,2.0,80,0.00,,,0.00,Wunderground v.1.15,2013-05-08 05:12:00,
2013-05-08 01:16:00,56.8,50.7,30.08,East,92,0.0,2.0,80,0.00,,,0.00,Wunderground v.1.15,2013-05-08 05:16:00,
2013-05-08 01:19:00,56.9,51.5,30.08,East,92,0.0,2.0,82,0.00,,,0.00,Wunderground v.1.15,2013-05-08 05:19:00,
2013-05-08 01:20:00,56.9,51.1,30.08,East,92,0.0,0.0,81,0.00,,,0.00,Wunderground v.1.15,2013-05-08 05:20:00,
2013-05-08 01:22:00,57.1,51.7,30.08,East,92,0.0,0.0,82,0.00,,,0.00,Wunderground v.1.15,2013-05-08 05:22:00,
2013-05-08 01:25:00,57.2,51.4,30.08,East,92,0.0,1.0,81,0.00,,,0.00,Wunderground v.1.15,2013-05-08 05:25:00,
2013-05-08 01:26:00,57.1,51.3,30.08,East,92,1.0,1.0,81,0.00,,,0.00,Wunderground v.1.15,2013-05-08 05:26:00,
2013-05-08 01:28:00,56.9,51.5,30.08,East,92,0.0,1.0,82,0.00,,,0.00,Wunderground v.1.15,2013-05-08 05:28:00,
2013-05-08 01:29:00,56.9,51.1,30.08,East,92,0.0,1.0,81,0.00,,,0.00,Wunderground v.1.15,2013-05-08 05:29:00,
2013-05-08 01:31:00,56.7,50.9,30.08,East,92,0.0,0.0,81,0.00,,,0.00,Wunderground v.1.15,2013-05-08 05:31:00,
2013-05-08 01:35:00,56.5,51.4,30.08,East,92,0.0,0.0,83,0.00,,,0.00,Wunderground v.1.15,2013-05-08 05:35:00,
2013-05-08 01:37:00,56.5,51.4,30.08,East,92,0.0,0.0,83,0.00,,,0.00,Wunderground v.1.15,2013-05-08 05:37:00,
2013-05-08 01:38:00,56.6,51.5,30.08,East,92,0.0,0.0,83,0.00,,,0.00,Wunderground v.1.15,2013-05-08 05:38:00,
2013-05-08 01:39:00,56.6,51.5,30.08,East,92,0.0,0.0,83,0.00,,,0.00,Wunderground v.1.15,2013-05-08 05:39:00,
2013-05-08 01:43:00,56.7,51.6,30.08,East,92,0.0,0.0,83,0.00,,,0.00,Wunderground v.1.15,2013-05-08 05:43:00,
2013-05-08 01:44:00,56.8,51.7,30.08,East,92,0.0,0.0,83,0.00,,,0.00,Wunderground v.1.15,2013-05-08 05:44:00,
2013-05-08 01:46:00,56.8,51.7,30.08,East,92,0.0,0.0,83,0.00,,,0.00,Wunderground v.1.15,2013-05-08 05:46:00,
2013-05-08 01:47:00,56.8,51.7,30.08,East,92,0.0,0.0,83,0.00,,,0.00,Wunderground v.1.15,2013-05-08 05:47:00,
2013-05-08 01:50:00,56.8,51.7,30.08,East,92,0.0,0.0,83,0.00,,,0.00,Wunderground v.1.15,2013-05-08 05:50:00,
2013-05-08 01:52:00,56.8,51.4,30.08,East,92,0.0,0.0,82,0.00,,,0.00,Wunderground v.1.15,2013-05-08 05:52:00,
2013-05-08 01:56:00,56.9,51.5,30.08,SE,139,0.0,0.0,82,0.00,,,0.00,Wunderground v.1.15,2013-05-08 05:56:00,
2013-05-08 01:57:00,56.9,51.8,30.08,SE,139,0.0,0.0,83,0.00,,,0.00,Wunderground v.1.15,2013-05-08 05:57:00,
2013-05-08 01:58:00,56.9,51.8,30.08,SE,139,0.0,0.0,83,0.00,,,0.00,Wunderground v.1.15,2013-05-08 05:58:00,
2013-05-08 01:59:00,56.9,51.8,30.08,SE,139,0.0,0.0,83,0.00,,,0.00,Wunderground v.1.15,2013-05-08 05:59:00,
2013-05-08 02:00:00,56.9,51.8,30.08,SE,139,0.0,0.0,83,0.00,,,0.00,Wunderground v.1.15,2013-05-08 06:00:00,
2013-05-08 02:01:00,56.9,51.8,30.08,SE,139,0.0,0.0,83,0.00,,,0.00,Wunderground v.1.15,2013-05-08 06:01:00,
2013-05-08 02:02:00,56.9,51.8,30.08,SE,139,0.0,0.0,83,0.00,,,0.00,Wunderground v.1.15,2013-05-08 06:02:00,
2013-05-08 02:03:00,56.9,51.8,30.08,SE,139,0.0,0.0,83,0.00,,,0.00,Wunderground v.1.15,2013-05-08 06:03:00,
2013-05-08 02:05:00,56.9,51.8,30.07,SE,139,0.0,0.0,83,0.00,,,0.00,Wunderground v.1.15,2013-05-08 06:05:00,
2013-05-08 02:06:00,56.9,51.5,30.07,SE,139,0.0,0.0,82,0.00,,,0.00,Wunderground v.1.15,2013-05-08 06:06:00,
2013-05-08 02:07:00,56.9,51.8,30.08,SE,139,0.0,0.0,83,0.00,,,0.00,Wunderground v.1.15,2013-05-08 06:07:00,
2013-05-08 02:08:00,56.9,51.8,30.08,SE,139,0.0,0.0,83,0.00,,,0.00,Wunderground v.1.15,2013-05-08 06:08:00,
2013-05-08 02:10:00,56.9,51.8,30.07,SE,139,0.0,0.0,83,0.00,,,0.00,Wunderground v.1.15,2013-05-08 06:10:00,
2013-05-08 02:12:00,56.8,51.7,30.07,SE,139,0.0,0.0,83,0.00,,,0.00,Wunderground v.1.15,2013-05-08 06:12:00,
2013-05-08 02:13:00,56.8,51.7,30.07,SE,139,0.0,0.0,83,0.00,,,0.00,Wunderground v.1.15,2013-05-08 06:13:00,
2013-05-08 02:14:00,56.8,51.7,30.07,SE,139,0.0,0.0,83,0.00,,,0.00,Wunderground v.1.15,2013-05-08 06:14:00,
2013-05-08 02:15:00,56.8,51.7,30.07,SE,139,0.0,0.0,83,0.00,,,0.00,Wunderground v.1.15,2013-05-08 06:15:00,
2013-05-08 02:17:00,56.8,51.7,30.07,SE,139,0.0,1.0,83,0.00,,,0.00,Wunderground v.1.15,2013-05-08 06:17:00,
2013-05-08 02:19:00,56.7,51.6,30.07,SE,139,0.0,1.0,83,0.00,,,0.00,Wunderground v.1.15,2013-05-08 06:19:00,
2013-05-08 02:20:00,56.6,51.5,30.07,SE,139,0.0,0.0,83,0.00,,,0.00,Wunderground v.1.15,2013-05-08 06:20:00,
2013-05-08 02:22:00,56.5,51.4,30.07,SE,139,0.0,1.0,83,0.00,,,0.00,Wunderground v.1.15,2013-05-08 06:22:00,
2013-05-08 02:24:00,56.4,51.3,30.07,SSE,159,0.0,2.0,83,0.00,,,0.00,Wunderground v.1.15,2013-05-08 06:24:00,
2013-05-08 02:25:00,56.4,51.3,30.07,SSE,159,0.0,2.0,83,0.00,,,0.00,Wunderground v.1.15,2013-05-08 06:25:00,
2013-05-08 02:27:00,56.3,51.2,30.07,SSE,159,0.0,2.0,83,0.00,,,0.00,Wunderground v.1.15,2013-05-08 06:27:00,
2013-05-08 02:28:00,56.3,51.2,30.07,SSE,159,0.0,2.0,83,0.00,,,0.00,Wunderground v.1.15,2013-05-08 06:28:00,
2013-05-08 02:29:00,56.3,51.5,30.07,SSE,159,0.0,2.0,84,0.00,,,0.00,Wunderground v.1.15,2013-05-08 06:29:00,
2013-05-08 02:30:00,56.2,51.4,30.07,SSE,159,0.0,1.0,84,0.00,,,0.00,Wunderground v.1.15,2013-05-08 06:30:00,
2013-05-08 02:33:00,56.3,51.5,30.07,SSE,159,0.0,1.0,84,0.00,,,0.00,Wunderground v.1.15,2013-05-08 06:33:00,
2013-05-08 02:34:00,56.3,51.5,30.07,SSE,159,0.0,1.0,84,0.00,,,0.00,Wunderground v.1.15,2013-05-08 06:34:00,
2013-05-08 02:35:00,56.3,51.2,30.07,SSE,159,0.0,1.0,83,0.00,,,0.00,Wunderground v.1.15,2013-05-08 06:35:00,
2013-05-08 02:36:00,56.3,51.5,30.07,SSE,159,0.0,1.0,84,0.00,,,0.00,Wunderground v.1.15,2013-05-08 06:36:00,
2013-05-08 02:38:00,56.2,51.4,30.07,SSE,159,0.0,1.0,84,0.00,,,0.00,Wunderground v.1.15,2013-05-08 06:38:00,
2013-05-08 02:39:00,56.2,51.4,30.07,SSE,159,0.0,2.0,84,0.00,,,0.00,Wunderground v.1.15,2013-05-08 06:39:00,
2013-05-08 02:40:00,56.1,51.0,30.07,SSE,159,0.0,0.0,83,0.00,,,0.00,Wunderground v.1.15,2013-05-08 06:40:00,
2013-05-08 02:41:00,56.1,51.3,30.07,SSE,159,0.0,0.0,84,0.00,,,0.00,Wunderground v.1.15,2013-05-08 06:41:00,
2013-05-08 02:43:00,56.0,51.2,30.07,SSE,159,0.0,0.0,84,0.00,,,0.00,Wunderground v.1.15,2013-05-08 06:43:00,
2013-05-08 02:44:00,55.9,51.1,30.07,SSE,159,1.0,1.0,84,0.00,,,0.00,Wunderground v.1.15,2013-05-08 06:44:00,
2013-05-08 02:46:00,55.9,51.1,30.07,SSE,159,0.0,2.0,84,0.00,,,0.00,Wunderground v.1.15,2013-05-08 06:46:00,
2013-05-08 02:48:00,55.8,51.0,30.07,SSE,159,0.0,2.0,84,0.00,,,0.00,Wunderground v.1.15,2013-05-08 06:48:00,
2013-05-08 02:49:00,55.8,51.0,30.07,SSE,159,0.0,2.0,84,0.00,,,0.00,Wunderground v.1.15,2013-05-08 06:49:00,
2013-05-08 02:51:00,55.7,50.9,30.07,SSE,159,0.0,0.0,84,0.00,,,0.00,Wunderground v.1.15,2013-05-08 06:51:00,
2013-05-08 02:53:00,55.5,51.1,30.07,South,171,2.0,5.0,85,0.00,,,0.00,Wunderground v.1.15,2013-05-08 06:53:00,
2013-05-08 02:54:00,55.6,51.2,30.07,SSE,164,2.0,5.0,85,0.00,,,0.00,Wunderground v.1.15,2013-05-08 06:54:00,
2013-05-08 02:56:00,55.8,51.4,30.07,SSE,164,0.0,5.0,85,0.00,,,0.00,Wunderground v.1.15,2013-05-08 06:56:00,
2013-05-08 02:59:00,56.0,51.2,30.07,South,184,0.0,5.0,84,0.00,,,0.00,Wunderground v.1.15,2013-05-08 06:59:00,
2013-05-08 03:02:00,56.2,51.4,30.07,South,184,0.0,1.0,84,0.00,,,0.00,Wunderground v.1.15,2013-05-08 07:02:00,
2013-05-08 03:04:00,56.3,51.2,30.07,WSW,244,3.0,4.0,83,0.00,,,0.00,Wunderground v.1.15,2013-05-08 07:04:00,
2013-05-08 03:07:00,56.4,51.3,30.07,SSW,211,2.0,4.0,83,0.00,,,0.00,Wunderground v.1.15,2013-05-08 07:07:00,
2013-05-08 03:09:00,56.4,51.0,30.07,SSE,159,0.0,5.0,82,0.00,,,0.00,Wunderground v.1.15,2013-05-08 07:09:00,
2013-05-08 03:10:00,56.4,51.0,30.07,SSE,159,0.0,0.0,82,0.00,,,0.00,Wunderground v.1.15,2013-05-08 07:10:00,
2013-05-08 03:12:00,56.4,51.0,30.07,SSE,159,0.0,1.0,82,0.00,,,0.00,Wunderground v.1.15,2013-05-08 07:12:00,
2013-05-08 03:15:00,56.3,50.9,30.07,South,173,0.0,1.0,82,0.00,,,0.00,Wunderground v.1.15,2013-05-08 07:15:00,
2013-05-08 03:16:00,56.3,50.9,30.07,South,173,0.0,1.0,82,0.00,,,0.00,Wunderground v.1.15,2013-05-08 07:16:00,
2013-05-08 03:17:00,56.3,50.9,30.07,South,173,0.0,1.0,82,0.00,,,0.00,Wunderground v.1.15,2013-05-08 07:17:00,
2013-05-08 03:18:00,56.2,50.8,30.07,South,173,0.0,1.0,82,0.00,,,0.00,Wunderground v.1.15,2013-05-08 07:18:00,
2013-05-08 03:20:00,56.2,50.8,30.07,South,173,0.0,0.0,82,0.00,,,0.00,Wunderground v.1.15,2013-05-08 07:20:00,
2013-05-08 03:21:00,56.1,50.7,30.07,South,173,0.0,1.0,82,0.00,,,0.00,Wunderground v.1.15,2013-05-08 07:21:00,
2013-05-08 03:22:00,56.0,50.6,30.07,South,173,0.0,1.0,82,0.00,,,0.00,Wunderground v.1.15,2013-05-08 07:22:00,
2013-05-08 03:23:00,56.0,50.6,30.07,South,173,0.0,1.0,82,0.00,,,0.00,Wunderground v.1.15,2013-05-08 07:23:00,
2013-05-08 03:25:00,55.9,50.5,30.07,South,173,0.0,1.0,82,0.00,,,0.00,Wunderground v.1.15,2013-05-08 07:25:00,
2013-05-08 03:26:00,55.8,50.4,30.07,South,173,0.0,1.0,82,0.00,,,0.00,Wunderground v.1.15,2013-05-08 07:26:00,
2013-05-08 03:27:00,55.8,50.7,30.07,South,173,0.0,1.0,83,0.00,,,0.00,Wunderground v.1.15,2013-05-08 07:27:00,
2013-05-08 03:28:00,55.7,50.6,30.07,South,173,0.0,1.0,83,0.00,,,0.00,Wunderground v.1.15,2013-05-08 07:28:00,
2013-05-08 03:30:00,55.6,50.5,30.06,South,173,0.0,1.0,83,0.00,,,0.00,Wunderground v.1.15,2013-05-08 07:30:00,
2013-05-08 03:31:00,55.6,50.5,30.06,South,173,0.0,1.0,83,0.00,,,0.00,Wunderground v.1.15,2013-05-08 07:31:00,
2013-05-08 03:32:00,55.5,50.4,30.07,South,173,0.0,1.0,83,0.00,,,0.00,Wunderground v.1.15,2013-05-08 07:32:00,
2013-05-08 03:33:00,55.4,50.3,30.06,South,173,0.0,1.0,83,0.00,,,0.00,Wunderground v.1.15,2013-05-08 07:33:00,
2013-05-08 03:36:00,55.4,50.6,30.07,South,173,0.0,1.0,84,0.00,,,0.00,Wunderground v.1.15,2013-05-08 07:36:00,
2013-05-08 03:37:00,55.4,50.6,30.07,South,173,0.0,1.0,84,0.00,,,0.00,Wunderground v.1.15,2013-05-08 07:37:00,
2013-05-08 03:38:00,55.4,50.6,30.07,South,173,0.0,1.0,84,0.00,,,0.00,Wunderground v.1.15,2013-05-08 07:38:00,
2013-05-08 03:41:00,55.3,50.5,30.07,South,173,0.0,1.0,84,0.00,,,0.00,Wunderground v.1.15,2013-05-08 07:41:00,
2013-05-08 03:42:00,55.3,50.5,30.07,South,173,0.0,1.0,84,0.00,,,0.00,Wunderground v.1.15,2013-05-08 07:42:00,
2013-05-08 03:44:00,55.3,50.5,30.07,South,173,0.0,1.0,84,0.00,,,0.00,Wunderground v.1.15,2013-05-08 07:44:00,
2013-05-08 03:46:00,55.2,50.4,30.07,South,173,0.0,1.0,84,0.00,,,0.00,Wunderground v.1.15,2013-05-08 07:46:00,
2013-05-08 03:47:00,55.2,50.4,30.07,South,173,0.0,1.0,84,0.00,,,0.00,Wunderground v.1.15,2013-05-08 07:47:00,
2013-05-08 03:49:00,55.1,50.4,30.07,South,173,0.0,1.0,84,0.00,,,0.00,Wunderground v.1.15,2013-05-08 07:49:00,
2013-05-08 03:51:00,54.9,50.2,30.07,South,173,0.0,0.0,84,0.00,,,0.00,Wunderground v.1.15,2013-05-08 07:51:00,
2013-05-08 03:52:00,54.9,50.2,30.07,South,173,0.0,0.0,84,0.00,,,0.00,Wunderground v.1.15,2013-05-08 07:52:00,
2013-05-08 03:54:00,54.8,50.4,30.07,South,173,0.0,1.0,85,0.00,,,0.00,Wunderground v.1.15,2013-05-08 07:54:00,
2013-05-08 03:56:00,54.7,50.3,30.07,South,173,0.0,1.0,85,0.00,,,0.00,Wunderground v.1.15,2013-05-08 07:56:00,
2013-05-08 03:57:00,54.7,50.3,30.07,South,173,0.0,1.0,85,0.00,,,0.00,Wunderground v.1.15,2013-05-08 07:57:00,
2013-05-08 03:58:00,54.7,50.3,30.07,South,173,0.0,1.0,85,0.00,,,0.00,Wunderground v.1.15,2013-05-08 07:58:00,
2013-05-08 03:59:00,54.6,50.2,30.07,South,173,0.0,1.0,85,0.00,,,0.00,Wunderground v.1.15,2013-05-08 07:59:00,
2013-05-08 04:00:00,54.7,50.3,30.07,South,173,0.0,0.0,85,0.00,,,0.00,Wunderground v.1.15,2013-05-08 08:00:00,
2013-05-08 04:02:00,54.7,50.3,30.07,South,173,0.0,1.0,85,0.00,,,0.00,Wunderground v.1.15,2013-05-08 08:02:00,
2013-05-08 04:03:00,54.7,50.3,30.07,South,173,0.0,1.0,85,0.00,,,0.00,Wunderground v.1.15,2013-05-08 08:03:00,
2013-05-08 04:04:00,54.7,50.3,30.07,South,173,0.0,1.0,85,0.00,,,0.00,Wunderground v.1.15,2013-05-08 08:04:00,
2013-05-08 04:05:00,54.8,50.4,30.07,South,173,0.0,1.0,85,0.00,,,0.00,Wunderground v.1.15,2013-05-08 08:05:00,
2013-05-08 04:08:00,54.8,50.1,30.07,South,173,0.0,1.0,84,0.00,,,0.00,Wunderground v.1.15,2013-05-08 08:08:00,
2013-05-08 04:09:00,54.8,50.1,30.07,South,173,1.0,1.0,84,0.00,,,0.00,Wunderground v.1.15,2013-05-08 08:09:00,
2013-05-08 04:10:00,54.9,50.2,30.07,South,173,0.0,0.0,84,0.00,,,0.00,Wunderground v.1.15,2013-05-08 08:10:00,
2013-05-08 04:13:00,54.9,50.2,30.07,South,173,0.0,0.0,84,0.00,,,0.00,Wunderground v.1.15,2013-05-08 08:13:00,
2013-05-08 04:16:00,54.9,50.2,30.07,South,173,0.0,1.0,84,0.00,,,0.00,Wunderground v.1.15,2013-05-08 08:16:00,
2013-05-08 04:18:00,55.0,50.3,30.07,South,173,0.0,1.0,84,0.00,,,0.00,Wunderground v.1.15,2013-05-08 08:18:00,
2013-05-08 04:19:00,55.0,50.3,30.07,South,173,0.0,1.0,84,0.00,,,0.00,Wunderground v.1.15,2013-05-08 08:19:00,
2013-05-08 04:21:00,54.9,50.2,30.07,South,173,0.0,1.0,84,0.00,,,0.00,Wunderground v.1.15,2013-05-08 08:21:00,
2013-05-08 04:23:00,54.9,50.2,30.07,South,173,0.0,1.0,84,0.00,,,0.00,Wunderground v.1.15,2013-05-08 08:23:00,
2013-05-08 04:24:00,54.9,50.2,30.07,South,173,0.0,1.0,84,0.00,,,0.00,Wunderground v.1.15,2013-05-08 08:24:00,
2013-05-08 04:26:00,55.0,50.3,30.07,South,173,0.0,1.0,84,0.00,,,0.00,Wunderground v.1.15,2013-05-08 08:26:00,
2013-05-08 04:28:00,55.0,50.3,30.07,South,173,0.0,1.0,84,0.00,,,0.00,Wunderground v.1.15,2013-05-08 08:28:00,
2013-05-08 04:29:00,55.0,50.3,30.07,South,173,0.0,1.0,84,0.00,,,0.00,Wunderground v.1.15,2013-05-08 08:29:00,
2013-05-08 04:30:00,55.0,50.3,30.07,South,173,0.0,1.0,84,0.00,,,0.00,Wunderground v.1.15,2013-05-08 08:30:00,
2013-05-08 04:31:00,55.0,50.3,30.07,South,173,0.0,0.0,84,0.00,,,0.00,Wunderground v.1.15,2013-05-08 08:31:00,
2013-05-08 04:32:00,54.9,50.2,30.07,South,173,0.0,0.0,84,0.00,,,0.00,Wunderground v.1.15,2013-05-08 08:32:00,
2013-05-08 04:33:00,54.9,50.2,30.07,South,173,0.0,0.0,84,0.00,,,0.00,Wunderground v.1.15,2013-05-08 08:33:00,
2013-05-08 04:34:00,54.9,50.2,30.07,South,173,0.0,1.0,84,0.00,,,0.00,Wunderground v.1.15,2013-05-08 08:34:00,
2013-05-08 04:35:00,55.0,50.3,30.07,South,173,0.0,1.0,84,0.00,,,0.00,Wunderground v.1.15,2013-05-08 08:35:00,
2013-05-08 04:36:00,55.0,50.3,30.07,South,173,0.0,1.0,84,0.00,,,0.00,Wunderground v.1.15,2013-05-08 08:36:00,
2013-05-08 04:37:00,55.0,50.3,30.07,South,173,0.0,1.0,84,0.00,,,0.00,Wunderground v.1.15,2013-05-08 08:37:00,
2013-05-08 04:39:00,54.9,50.2,30.07,South,173,0.0,1.0,84,0.00,,,0.00,Wunderground v.1.15,2013-05-08 08:39:00,
2013-05-08 04:40:00,54.9,50.2,30.07,South,173,0.0,0.0,84,0.00,,,0.00,Wunderground v.1.15,2013-05-08 08:40:00,
2013-05-08 04:41:00,54.9,50.2,30.07,South,173,0.0,0.0,84,0.00,,,0.00,Wunderground v.1.15,2013-05-08 08:41:00,
2013-05-08 04:42:00,54.8,50.1,30.07,South,173,0.0,1.0,84,0.00,,,0.00,Wunderground v.1.15,2013-05-08 08:42:00,
2013-05-08 04:44:00,54.8,50.1,30.07,South,173,1.0,2.0,84,0.00,,,0.00,Wunderground v.1.15,2013-05-08 08:44:00,
2013-05-08 04:45:00,54.8,50.1,30.07,South,173,0.0,2.0,84,0.00,,,0.00,Wunderground v.1.15,2013-05-08 08:45:00,
2013-05-08 04:46:00,54.7,50.0,30.07,South,173,2.0,2.0,84,0.00,,,0.00,Wunderground v.1.15,2013-05-08 08:46:00,
2013-05-08 04:47:00,54.6,49.9,30.07,South,173,1.0,2.0,84,0.00,,,0.00,Wunderground v.1.15,2013-05-08 08:47:00,
2013-05-08 04:49:00,54.6,49.5,30.07,South,173,0.0,2.0,83,0.00,,,0.00,Wunderground v.1.15,2013-05-08 08:49:00,
2013-05-08 04:50:00,54.7,49.6,30.07,South,173,0.0,2.0,83,0.00,,,0.00,Wunderground v.1.15,2013-05-08 08:50:00,
2013-05-08 04:52:00,54.9,49.5,30.07,South,173,0.0,1.0,82,0.00,,,0.00,Wunderground v.1.15,2013-05-08 08:52:00,
2013-05-08 04:54:00,54.9,49.2,30.07,South,173,0.0,1.0,81,0.00,,,0.00,Wunderground v.1.15,2013-05-08 08:54:00,
2013-05-08 04:55:00,54.9,48.8,30.07,South,173,0.0,1.0,80,0.00,,,0.00,Wunderground v.1.15,2013-05-08 08:55:00,
2013-05-08 04:56:00,54.9,48.8,30.07,South,173,0.0,1.0,80,0.00,,,0.00,Wunderground v.1.15,2013-05-08 08:56:00,
2013-05-08 04:58:00,55.0,48.6,30.07,South,173,0.0,1.0,79,0.00,,,0.00,Wunderground v.1.15,2013-05-08 08:58:00,
2013-05-08 04:59:00,55.1,48.7,30.07,South,173,0.0,2.0,79,0.00,,,0.00,Wunderground v.1.15,2013-05-08 08:59:00,
2013-05-08 05:00:00,55.1,48.7,30.07,South,173,0.0,0.0,79,0.00,,,0.00,Wunderground v.1.15,2013-05-08 09:00:00,
2013-05-08 05:01:00,55.1,48.7,30.07,South,173,0.0,0.0,79,0.00,,,0.00,Wunderground v.1.15,2013-05-08 09:01:00,
2013-05-08 05:03:00,55.2,48.8,30.07,South,173,0.0,1.0,79,0.00,,,0.00,Wunderground v.1.15,2013-05-08 09:03:00,
2013-05-08 05:04:00,55.2,48.8,30.07,South,173,0.0,1.0,79,0.00,,,0.00,Wunderground v.1.15,2013-05-08 09:04:00,
2013-05-08 05:06:00,55.3,48.9,30.07,South,173,0.0,1.0,79,0.00,,,0.00,Wunderground v.1.15,2013-05-08 09:06:00,
2013-05-08 05:08:00,55.3,48.9,30.07,South,173,1.0,1.0,79,0.00,,,0.00,Wunderground v.1.15,2013-05-08 09:08:00,
2013-05-08 05:10:00,55.3,48.9,30.07,South,173,0.0,0.0,79,0.00,,,0.00,Wunderground v.1.15,2013-05-08 09:10:00,
2013-05-08 05:11:00,55.3,48.9,30.07,South,173,0.0,0.0,79,0.00,,,0.00,Wunderground v.1.15,2013-05-08 09:11:00,
2013-05-08 05:13:00,55.3,48.9,30.07,South,173,0.0,1.0,79,0.00,,,0.00,Wunderground v.1.15,2013-05-08 09:13:00,
2013-05-08 05:15:00,55.3,48.9,30.07,South,173,0.0,1.0,79,0.00,,,0.00,Wunderground v.1.15,2013-05-08 09:15:00,
2013-05-08 05:16:00,55.3,48.9,30.08,South,173,0.0,1.0,79,0.00,,,0.00,Wunderground v.1.15,2013-05-08 09:16:00,
2013-05-08 05:19:00,55.3,49.2,30.08,South,173,0.0,1.0,80,0.00,,,0.00,Wunderground v.1.15,2013-05-08 09:19:00,
2013-05-08 05:20:00,55.3,49.2,30.08,South,173,0.0,0.0,80,0.00,,,0.00,Wunderground v.1.15,2013-05-08 09:20:00,
2013-05-08 05:22:00,55.3,49.2,30.08,South,173,0.0,0.0,80,0.00,,,0.00,Wunderground v.1.15,2013-05-08 09:22:00,
2013-05-08 05:24:00,55.3,49.2,30.08,South,173,0.0,1.0,80,0.00,,,0.00,Wunderground v.1.15,2013-05-08 09:24:00,
2013-05-08 05:26:00,55.2,49.1,30.08,South,173,0.0,1.0,80,0.00,,,0.00,Wunderground v.1.15,2013-05-08 09:26:00,
2013-05-08 05:27:00,55.2,49.5,30.08,South,173,0.0,1.0,81,0.00,,,0.00,Wunderground v.1.15,2013-05-08 09:27:00,
2013-05-08 05:29:00,55.1,49.4,30.08,South,173,0.0,1.0,81,0.00,,,0.00,Wunderground v.1.15,2013-05-08 09:29:00,
2013-05-08 05:30:00,55.1,49.4,30.08,South,173,0.0,1.0,81,0.00,,,0.00,Wunderground v.1.15,2013-05-08 09:30:00,
2013-05-08 05:32:00,55.1,49.4,30.08,South,173,0.0,0.0,81,0.00,,,0.00,Wunderground v.1.15,2013-05-08 09:32:00,
2013-05-08 05:34:00,55.0,49.3,30.08,South,173,0.0,0.0,81,0.00,,,0.00,Wunderground v.1.15,2013-05-08 09:34:00,
2013-05-08 05:35:00,55.0,49.3,30.08,South,173,0.0,0.0,81,0.00,,,0.00,Wunderground v.1.15,2013-05-08 09:35:00,
2013-05-08 05:37:00,55.0,49.6,30.08,South,173,0.0,1.0,82,0.00,,,0.00,Wunderground v.1.15,2013-05-08 09:37:00,
2013-05-08 05:38:00,55.0,49.6,30.08,South,173,0.0,1.0,82,0.00,,,0.00,Wunderground v.1.15,2013-05-08 09:38:00,
2013-05-08 05:39:00,55.0,49.6,30.08,South,173,1.0,1.0,82,0.00,,,0.00,Wunderground v.1.15,2013-05-08 09:39:00,
2013-05-08 05:41:00,55.0,49.6,30.08,South,173,0.0,1.0,82,0.00,,,0.00,Wunderground v.1.15,2013-05-08 09:41:00,
2013-05-08 05:42:00,55.0,49.9,30.08,South,173,0.0,1.0,83,0.00,,,0.00,Wunderground v.1.15,2013-05-08 09:42:00,
2013-05-08 05:43:00,55.0,49.9,30.08,South,173,0.0,1.0,83,0.00,,,0.00,Wunderground v.1.15,2013-05-08 09:43:00,
2013-05-08 05:44:00,55.0,49.9,30.08,South,173,0.0,1.0,83,0.00,,,0.00,Wunderground v.1.15,2013-05-08 09:44:00,
2013-05-08 05:47:00,55.1,50.0,30.08,South,173,0.0,1.0,83,0.00,,,0.00,Wunderground v.1.15,2013-05-08 09:47:00,
2013-05-08 05:48:00,55.1,50.0,30.08,South,173,0.0,1.0,83,0.00,,,0.00,Wunderground v.1.15,2013-05-08 09:48:00,
2013-05-08 05:49:00,55.1,50.0,30.08,South,173,0.0,1.0,83,0.00,,,0.00,Wunderground v.1.15,2013-05-08 09:49:00,
2013-05-08 05:50:00,55.1,50.0,30.08,South,173,0.0,1.0,83,0.00,,,0.00,Wunderground v.1.15,2013-05-08 09:50:00,
2013-05-08 05:52:00,55.1,50.0,30.08,South,173,0.0,0.0,83,0.00,,,0.00,Wunderground v.1.15,2013-05-08 09:52:00,
2013-05-08 05:53:00,55.0,49.9,30.08,South,173,0.0,0.0,83,0.00,,,0.00,Wunderground v.1.15,2013-05-08 09:53:00,
2013-05-08 05:54:00,55.0,50.3,30.08,South,173,0.0,1.0,84,0.00,,,0.00,Wunderground v.1.15,2013-05-08 09:54:00,
2013-05-08 05:55:00,55.0,50.3,30.08,South,173,0.0,1.0,84,0.00,,,0.00,Wunderground v.1.15,2013-05-08 09:55:00,
2013-05-08 05:57:00,55.0,50.3,30.08,South,173,0.0,1.0,84,0.00,,,0.00,Wunderground v.1.15,2013-05-08 09:57:00,
2013-05-08 05:58:00,55.0,50.3,30.08,South,173,0.0,1.0,84,0.00,,,0.00,Wunderground v.1.15,2013-05-08 09:58:00,
2013-05-08 05:59:00,55.0,50.6,30.08,South,173,0.0,1.0,85,0.00,,,0.00,Wunderground v.1.15,2013-05-08 09:59:00,
2013-05-08 06:00:00,55.1,50.7,30.08,South,173,0.0,0.0,85,0.00,,,0.00,Wunderground v.1.15,2013-05-08 10:00:00,
2013-05-08 06:02:00,55.1,50.4,30.09,South,173,0.0,1.0,84,0.00,,,0.00,Wunderground v.1.15,2013-05-08 10:02:00,
2013-05-08 06:03:00,55.1,50.4,30.09,South,173,1.0,1.0,84,0.00,,,0.00,Wunderground v.1.15,2013-05-08 10:03:00,
2013-05-08 06:04:00,55.1,50.7,30.08,South,173,0.0,1.0,85,0.00,,,0.00,Wunderground v.1.15,2013-05-08 10:04:00,
2013-05-08 06:05:00,55.2,50.4,30.08,South,173,0.0,1.0,84,0.00,,,0.00,Wunderground v.1.15,2013-05-08 10:05:00,
2013-05-08 06:07:00,55.2,50.4,30.09,South,173,0.0,1.0,84,0.00,,,0.00,Wunderground v.1.15,2013-05-08 10:07:00,
2013-05-08 06:09:00,55.2,50.4,30.09,South,173,1.0,1.0,84,0.00,,,0.00,Wunderground v.1.15,2013-05-08 10:09:00,
2013-05-08 06:11:00,55.2,50.4,30.09,South,173,0.0,0.0,84,0.00,,,0.00,Wunderground v.1.15,2013-05-08 10:11:00,
2013-05-08 06:12:00,55.2,50.4,30.09,South,173,0.0,1.0,84,0.00,,,0.00,Wunderground v.1.15,2013-05-08 10:12:00,
2013-05-08 06:14:00,55.1,50.4,30.09,South,173,0.0,1.0,84,0.00,,,0.00,Wunderground v.1.15,2013-05-08 10:14:00,
2013-05-08 06:16:00,55.2,50.8,30.09,South,173,0.0,1.0,85,0.00,,,0.00,Wunderground v.1.15,2013-05-08 10:16:00,
2013-05-08 06:18:00,55.3,50.9,30.09,South,173,1.0,1.0,85,0.00,,,0.00,Wunderground v.1.15,2013-05-08 10:18:00,
2013-05-08 06:20:00,55.3,50.9,30.09,South,173,0.0,1.0,85,0.00,,,0.00,Wunderground v.1.15,2013-05-08 10:20:00,
2013-05-08 06:21:00,55.3,50.5,30.09,South,173,0.0,1.0,84,0.00,,,0.00,Wunderground v.1.15,2013-05-08 10:21:00,
2013-05-08 06:22:00,55.3,50.9,30.09,South,173,0.0,1.0,85,0.00,,,0.00,Wunderground v.1.15,2013-05-08 10:22:00,
2013-05-08 06:23:00,55.2,50.8,30.09,South,173,0.0,1.0,85,0.00,,,0.00,Wunderground v.1.15,2013-05-08 10:23:00,
2013-05-08 06:25:00,55.3,50.9,30.09,South,173,0.0,2.0,85,0.00,,,0.00,Wunderground v.1.15,2013-05-08 10:25:00,
2013-05-08 06:27:00,55.3,50.5,30.09,South,173,0.0,2.0,84,0.00,,,0.00,Wunderground v.1.15,2013-05-08 10:27:00,
2013-05-08 06:28:00,55.2,50.4,30.09,South,173,1.0,2.0,84,0.00,,,0.00,Wunderground v.1.15,2013-05-08 10:28:00,
2013-05-08 06:30:00,55.1,50.4,30.09,South,173,1.0,2.0,84,0.00,,,0.00,Wunderground v.1.15,2013-05-08 10:30:00,
2013-05-08 06:33:00,55.0,50.6,30.09,South,173,0.0,1.0,85,0.00,,,0.00,Wunderground v.1.15,2013-05-08 10:33:00,
2013-05-08 06:35:00,55.0,50.6,30.09,South,173,0.0,1.0,85,0.00,,,0.00,Wunderground v.1.15,2013-05-08 10:35:00,
2013-05-08 06:36:00,55.0,50.6,30.09,South,173,0.0,1.0,85,0.00,,,0.00,Wunderground v.1.15,2013-05-08 10:36:00,
2013-05-08 06:38:00,55.0,50.6,30.09,South,173,0.0,1.0,85,0.00,,,0.00,Wunderground v.1.15,2013-05-08 10:38:00,
2013-05-08 06:39:00,55.0,50.9,30.09,South,173,1.0,1.0,86,0.00,,,0.00,Wunderground v.1.15,2013-05-08 10:39:00,
2013-05-08 06:41:00,55.2,51.1,30.09,ENE,75,0.0,2.0,86,0.00,,,0.00,Wunderground v.1.15,2013-05-08 10:41:00,
2013-05-08 06:43:00,55.4,51.3,30.09,ENE,75,0.0,2.0,86,0.00,,,0.00,Wunderground v.1.15,2013-05-08 10:43:00,
2013-05-08 06:45:00,55.6,51.5,30.09,ENE,75,0.0,2.0,86,0.00,,,0.00,Wunderground v.1.15,2013-05-08 10:45:00,
2013-05-08 06:46:00,55.7,51.3,30.09,ENE,75,0.0,2.0,85,0.00,,,0.00,Wunderground v.1.15,2013-05-08 10:46:00,
2013-05-08 06:48:00,55.9,51.5,30.09,ENE,75,0.0,2.0,85,0.00,,,0.00,Wunderground v.1.15,2013-05-08 10:48:00,
2013-05-08 06:50:00,56.0,51.6,30.09,ENE,75,0.0,2.0,85,0.00,,,0.00,Wunderground v.1.15,2013-05-08 10:50:00,
2013-05-08 06:51:00,56.1,51.7,30.09,ENE,75,0.0,0.0,85,0.00,,,0.00,Wunderground v.1.15,2013-05-08 10:51:00,
2013-05-08 06:52:00,56.2,51.7,30.09,ENE,75,0.0,1.0,85,0.00,,,0.00,Wunderground v.1.15,2013-05-08 10:52:00,
2013-05-08 06:53:00,56.2,51.4,30.09,ENE,75,0.0,1.0,84,0.00,,,0.00,Wunderground v.1.15,2013-05-08 10:53:00,
2013-05-08 06:55:00,56.3,51.5,30.09,ENE,75,0.0,1.0,84,0.00,,,0.00,Wunderground v.1.15,2013-05-08 10:55:00,
2013-05-08 06:57:00,56.4,51.6,30.09,ENE,75,0.0,1.0,84,0.00,,,0.00,Wunderground v.1.15,2013-05-08 10:57:00,
2013-05-08 06:58:00,56.4,51.9,30.09,ENE,75,0.0,1.0,85,0.00,,,0.00,Wunderground v.1.15,2013-05-08 10:58:00,
2013-05-08 07:00:00,56.5,52.0,30.09,ENE,75,0.0,0.0,85,0.00,,,0.00,Wunderground v.1.15,2013-05-08 11:00:00,
2013-05-08 07:02:00,56.6,52.1,30.10,ENE,62,0.0,3.0,85,0.00,,,0.00,Wunderground v.1.15,2013-05-08 11:02:00,
2013-05-08 07:03:00,56.6,52.1,30.09,ENE,76,3.0,3.0,85,0.00,,,0.00,Wunderground v.1.15,2013-05-08 11:03:00,
2013-05-08 07:05:00,56.7,51.9,30.10,ENE,76,0.0,3.0,84,0.00,,,0.00,Wunderground v.1.15,2013-05-08 11:05:00,
2013-05-08 07:06:00,56.8,52.0,30.10,ENE,76,0.0,3.0,84,0.00,,,0.00,Wunderground v.1.15,2013-05-08 11:06:00,
2013-05-08 07:08:00,56.8,52.0,30.10,ENE,76,0.0,3.0,84,0.00,,,0.00,Wunderground v.1.15,2013-05-08 11:08:00,
2013-05-08 07:09:00,56.8,52.0,30.10,ENE,76,0.0,3.0,84,0.00,,,0.00,Wunderground v.1.15,2013-05-08 11:09:00,
2013-05-08 07:10:00,56.9,52.1,30.10,ENE,76,0.0,0.0,84,0.00,,,0.00,Wunderground v.1.15,2013-05-08 11:10:00,
2013-05-08 07:11:00,56.9,52.1,30.10,ENE,76,0.0,1.0,84,0.00,,,0.00,Wunderground v.1.15,2013-05-08 11:11:00,
2013-05-08 07:13:00,57.1,52.3,30.10,ENE,76,0.0,1.0,84,0.00,,,0.00,Wunderground v.1.15,2013-05-08 11:13:00,
2013-05-08 07:14:00,57.1,52.3,30.10,ENE,76,1.0,1.0,84,0.00,,,0.00,Wunderground v.1.15,2013-05-08 11:14:00,
2013-05-08 07:15:00,57.2,52.4,30.10,ENE,76,0.0,1.0,84,0.00,,,0.00,Wunderground v.1.15,2013-05-08 11:15:00,
2013-05-08 07:16:00,57.2,52.4,30.10,ENE,77,0.0,1.0,84,0.00,,,0.00,Wunderground v.1.15,2013-05-08 11:16:00,
2013-05-08 07:18:00,57.3,52.5,30.10,ENE,77,0.0,1.0,84,0.00,,,0.00,Wunderground v.1.15,2013-05-08 11:18:00,
2013-05-08 07:19:00,57.3,52.5,30.10,ENE,77,0.0,1.0,84,0.00,,,0.00,Wunderground v.1.15,2013-05-08 11:19:00,
2013-05-08 07:20:00,57.3,52.5,30.10,ENE,77,0.0,0.0,84,0.00,,,0.00,Wunderground v.1.15,2013-05-08 11:20:00,
2013-05-08 07:23:00,57.4,52.6,30.10,East,90,0.0,1.0,84,0.00,,,0.00,Wunderground v.1.15,2013-05-08 11:23:00,
2013-05-08 07:24:00,57.4,52.6,30.10,East,90,0.0,1.0,84,0.00,,,0.00,Wunderground v.1.15,2013-05-08 11:24:00,
2013-05-08 07:25:00,57.5,52.7,30.10,East,84,0.0,3.0,84,0.00,,,0.00,Wunderground v.1.15,2013-05-08 11:25:00,
2013-05-08 07:28:00,57.6,53.1,30.10,NE,46,2.0,3.0,85,0.00,,,0.00,Wunderground v.1.15,2013-05-08 11:28:00,
2013-05-08 07:29:00,57.6,53.1,30.10,NE,46,0.0,3.0,85,0.00,,,0.00,Wunderground v.1.15,2013-05-08 11:29:00,
2013-05-08 07:30:00,57.6,53.1,30.10,NE,46,0.0,0.0,85,0.00,,,0.00,Wunderground v.1.15,2013-05-08 11:30:00,
2013-05-08 07:31:00,57.6,53.1,30.11,East,95,1.0,4.0,85,0.00,,,0.00,Wunderground v.1.15,2013-05-08 11:31:00,
2013-05-08 07:34:00,57.5,52.7,30.11,ENE,77,3.0,5.0,84,0.00,,,0.00,Wunderground v.1.15,2013-05-08 11:34:00,
2013-05-08 07:36:00,57.5,52.7,30.11,ENE,61,1.0,5.0,84,0.00,,,0.00,Wunderground v.1.15,2013-05-08 11:36:00,
2013-05-08 07:39:00,57.3,52.8,30.11,ENE,65,1.0,5.0,85,0.00,,,0.00,Wunderground v.1.15,2013-05-08 11:39:00,
2013-05-08 07:41:00,57.3,52.8,30.11,East,96,0.0,1.0,85,0.00,,,0.00,Wunderground v.1.15,2013-05-08 11:41:00,
2013-05-08 07:44:00,57.4,52.9,30.11,East,96,0.0,2.0,85,0.00,,,0.00,Wunderground v.1.15,2013-05-08 11:44:00,
2013-05-08 07:45:00,57.3,52.8,30.11,East,96,0.0,2.0,85,0.00,,,0.00,Wunderground v.1.15,2013-05-08 11:45:00,
2013-05-08 07:46:00,57.4,52.9,30.11,East,96,0.0,2.0,85,0.00,,,0.00,Wunderground v.1.15,2013-05-08 11:46:00,
2013-05-08 07:47:00,57.4,52.9,30.11,East,96,0.0,2.0,85,0.00,,,0.00,Wunderground v.1.15,2013-05-08 11:47:00,
2013-05-08 07:49:00,57.5,53.3,30.11,East,96,0.0,2.0,86,0.00,,,0.00,Wunderground v.1.15,2013-05-08 11:49:00,
2013-05-08 07:50:00,57.5,53.3,30.11,East,96,0.0,2.0,86,0.00,,,0.00,Wunderground v.1.15,2013-05-08 11:50:00,
2013-05-08 07:51:00,57.5,53.3,30.11,East,96,0.0,4.0,86,0.00,,,0.00,Wunderground v.1.15,2013-05-08 11:51:00,
2013-05-08 07:52:00,57.5,53.0,30.11,NE,43,4.0,4.0,85,0.00,,,0.00,Wunderground v.1.15,2013-05-08 11:52:00,
2013-05-08 07:55:00,57.5,53.3,30.11,NE,54,3.0,4.0,86,0.00,,,0.00,Wunderground v.1.15,2013-05-08 11:55:00,
2013-05-08 07:56:00,57.4,53.2,30.11,NE,40,3.0,5.0,86,0.00,,,0.00,Wunderground v.1.15,2013-05-08 11:56:00,
2013-05-08 07:57:00,57.3,53.1,30.11,NNE,26,2.0,5.0,86,0.00,,,0.00,Wunderground v.1.15,2013-05-08 11:57:00,
2013-05-08 08:00:00,57.3,53.1,30.11,NE,47,0.0,1.0,86,0.00,,,0.00,Wunderground v.1.15,2013-05-08 12:00:00,
2013-05-08 08:01:00,57.3,53.5,30.11,NE,46,3.0,4.0,87,0.00,,,0.00,Wunderground v.1.15,2013-05-08 12:01:00,
2013-05-08 08:02:00,57.3,53.5,30.11,East,101,0.0,4.0,87,0.00,,,0.00,Wunderground v.1.15,2013-05-08 12:02:00,
2013-05-08 08:05:00,57.3,53.5,30.11,East,95,4.0,5.0,87,0.00,,,0.00,Wunderground v.1.15,2013-05-08 12:05:00,
2013-05-08 08:06:00,57.4,53.6,30.11,ENE,77,0.0,5.0,87,0.00,,,0.00,Wunderground v.1.15,2013-05-08 12:06:00,
2013-05-08 08:07:00,57.4,53.6,30.11,East,90,0.0,5.0,87,0.00,,,0.00,Wunderground v.1.15,2013-05-08 12:07:00,
2013-05-08 08:10:00,57.7,54.2,30.11,NE,51,2.0,2.0,88,0.00,,,0.00,Wunderground v.1.15,2013-05-08 12:10:00,
2013-05-08 08:11:00,57.8,54.0,30.11,NE,40,0.0,4.0,87,0.00,,,0.00,Wunderground v.1.15,2013-05-08 12:11:00,
2013-05-08 08:12:00,58.0,54.2,30.11,NE,40,0.0,4.0,87,0.00,,,0.00,Wunderground v.1.15,2013-05-08 12:12:00,
2013-05-08 08:13:00,58.1,54.2,30.11,NE,40,0.0,4.0,87,0.00,,,0.00,Wunderground v.1.15,2013-05-08 12:13:00,
2013-05-08 08:15:00,58.5,54.6,30.12,NE,40,0.0,4.0,87,0.00,,,0.00,Wunderground v.1.15,2013-05-08 12:15:00,
2013-05-08 08:17:00,58.6,54.4,30.11,NE,40,0.0,4.0,86,0.00,,,0.00,Wunderground v.1.15,2013-05-08 12:17:00,
2013-05-08 08:18:00,58.8,54.6,30.11,East,95,2.0,4.0,86,0.00,,,0.00,Wunderground v.1.15,2013-05-08 12:18:00,
2013-05-08 08:22:00,59.3,54.8,30.12,East,88,0.0,1.0,85,0.00,,,0.00,Wunderground v.1.15,2013-05-08 12:22:00,
2013-05-08 08:23:00,59.4,54.9,30.12,East,88,0.0,1.0,85,0.00,,,0.00,Wunderground v.1.15,2013-05-08 12:23:00,
2013-05-08 08:27:00,59.7,54.9,30.11,ESE,117,1.0,5.0,84,0.00,,,0.00,Wunderground v.1.15,2013-05-08 12:27:00,
2013-05-08 08:28:00,59.8,55.0,30.12,SE,129,0.0,5.0,84,0.00,,,0.00,Wunderground v.1.15,2013-05-08 12:28:00,
2013-05-08 08:32:00,60.1,54.9,30.12,ESE,114,0.0,1.0,83,0.00,,,0.00,Wunderground v.1.15,2013-05-08 12:32:00,
2013-05-08 08:33:00,60.2,55.0,30.12,ESE,109,0.0,1.0,83,0.00,,,0.00,Wunderground v.1.15,2013-05-08 12:33:00,
2013-05-08 08:34:00,60.4,55.2,30.12,East,101,0.0,1.0,83,0.00,,,0.00,Wunderground v.1.15,2013-05-08 12:34:00,
2013-05-08 08:37:00,60.9,55.4,30.12,ESE,115,0.0,2.0,82,0.00,,,0.00,Wunderground v.1.15,2013-05-08 12:37:00,
2013-05-08 08:38:00,60.9,55.4,30.12,ESE,123,0.0,2.0,82,0.00,,,0.00,Wunderground v.1.15,2013-05-08 12:38:00,
2013-05-08 08:40:00,60.9,55.4,30.12,ESE,113,0.0,0.0,82,0.00,,,0.00,Wunderground v.1.15,2013-05-08 12:40:00,
2013-05-08 08:43:00,60.8,55.3,30.12,SE,144,1.0,4.0,82,0.00,,,0.00,Wunderground v.1.15,2013-05-08 12:43:00,
2013-05-08 08:44:00,60.8,55.3,30.12,SE,144,0.0,4.0,82,0.00,,,0.00,Wunderground v.1.15,2013-05-08 12:44:00,
2013-05-08 08:45:00,60.6,55.1,30.12,SSE,150,4.0,6.0,82,0.00,,,0.00,Wunderground v.1.15,2013-05-08 12:45:00,
2013-05-08 08:48:00,60.2,55.0,30.12,South,185,0.0,6.0,83,0.00,,,0.00,Wunderground v.1.15,2013-05-08 12:48:00,
2013-05-08 08:49:00,60.1,54.9,30.13,South,185,3.0,6.0,83,0.00,,,0.00,Wunderground v.1.15,2013-05-08 12:49:00,
2013-05-08 08:50:00,60.0,55.2,30.13,South,188,3.0,5.0,84,0.00,,,0.00,Wunderground v.1.15,2013-05-08 12:50:00,
2013-05-08 08:53:00,59.9,55.1,30.13,South,191,3.0,6.0,84,0.00,,,0.00,Wunderground v.1.15,2013-05-08 12:53:00,
2013-05-08 08:54:00,59.9,55.1,30.13,South,191,0.0,6.0,84,0.00,,,0.00,Wunderground v.1.15,2013-05-08 12:54:00,
2013-05-08 08:55:00,59.9,55.1,30.13,South,191,0.0,6.0,84,0.00,,,0.00,Wunderground v.1.15,2013-05-08 12:55:00,
2013-05-08 08:56:00,60.0,55.5,30.13,East,80,3.0,6.0,85,0.00,,,0.00,Wunderground v.1.15,2013-05-08 12:56:00,
2013-05-08 08:58:00,60.1,55.2,30.13,ENE,77,1.0,6.0,84,0.00,,,0.00,Wunderground v.1.15,2013-05-08 12:58:00,
2013-05-08 08:59:00,60.2,55.3,30.13,ESE,108,0.0,6.0,84,0.00,,,0.00,Wunderground v.1.15,2013-05-08 12:59:00,
2013-05-08 09:00:00,60.2,55.3,30.12,East,97,0.0,6.0,84,0.00,,,0.00,Wunderground v.1.15,2013-05-08 13:00:00,
2013-05-08 09:01:00,60.3,55.8,30.13,SSE,153,0.0,1.0,85,0.00,,,0.00,Wunderground v.1.15,2013-05-08 13:01:00,
2013-05-08 09:03:00,60.5,55.6,30.12,South,171,0.0,3.0,84,0.00,,,0.00,Wunderground v.1.15,2013-05-08 13:03:00,
2013-05-08 09:04:00,60.5,55.3,30.12,South,171,0.0,3.0,83,0.00,,,0.00,Wunderground v.1.15,2013-05-08 13:04:00,
2013-05-08 09:05:00,60.6,55.4,30.12,NNW,348,1.0,3.0,83,0.00,,,0.00,Wunderground v.1.15,2013-05-08 13:05:00,
2013-05-08 09:06:00,60.7,55.5,30.12,South,187,3.0,4.0,83,0.00,,,0.00,Wunderground v.1.15,2013-05-08 13:06:00,
2013-05-08 09:09:00,60.8,55.6,30.11,SSE,159,2.0,6.0,83,0.00,,,0.00,Wunderground v.1.15,2013-05-08 13:09:00,
2013-05-08 09:10:00,60.7,55.2,30.12,South,180,1.0,6.0,82,0.00,,,0.00,Wunderground v.1.15,2013-05-08 13:10:00,
2013-05-08 09:12:00,60.7,55.2,30.12,SSE,167,1.0,5.0,82,0.00,,,0.00,Wunderground v.1.15,2013-05-08 13:12:00,
2013-05-08 09:14:00,60.6,55.4,30.11,ENE,63,4.0,5.0,83,0.00,,,0.00,Wunderground v.1.15,2013-05-08 13:14:00,
2013-05-08 09:15:00,60.8,55.9,30.11,South,191,0.0,6.0,84,0.00,,,0.00,Wunderground v.1.15,2013-05-08 13:15:00,
2013-05-08 09:17:00,61.0,55.5,30.11,NNE,13,0.0,6.0,82,0.00,,,0.00,Wunderground v.1.15,2013-05-08 13:17:00,
2013-05-08 09:19:00,61.3,55.8,30.11,SW,217,4.0,6.0,82,0.00,,,0.00,Wunderground v.1.15,2013-05-08 13:19:00,
2013-05-08 09:20:00,61.5,55.6,30.11,SE,144,0.0,2.0,81,0.00,,,0.00,Wunderground v.1.15,2013-05-08 13:20:00,
2013-05-08 09:21:00,61.6,55.4,30.11,South,190,2.0,2.0,80,0.00,,,0.00,Wunderground v.1.15,2013-05-08 13:21:00,
2013-05-08 09:23:00,61.8,55.6,30.11,SSW,209,1.0,3.0,80,0.00,,,0.00,Wunderground v.1.15,2013-05-08 13:23:00,
2013-05-08 09:24:00,62.0,55.4,30.11,SSE,151,1.0,7.0,79,0.00,,,0.00,Wunderground v.1.15,2013-05-08 13:24:00,
2013-05-08 09:25:00,62.0,55.4,30.11,SSE,148,0.0,7.0,79,0.00,,,0.00,Wunderground v.1.15,2013-05-08 13:25:00,
2013-05-08 09:26:00,62.0,55.4,30.11,SSE,148,0.0,7.0,79,0.00,,,0.00,Wunderground v.1.15,2013-05-08 13:26:00,
2013-05-08 09:28:00,62.1,55.5,30.11,SSE,162,6.0,7.0,79,0.00,,,0.00,Wunderground v.1.15,2013-05-08 13:28:00,
2013-05-08 09:29:00,62.1,55.5,30.11,South,179,2.0,7.0,79,0.00,,,0.00,Wunderground v.1.15,2013-05-08 13:29:00,
2013-05-08 09:30:00,62.0,55.4,30.11,SSE,165,2.0,2.0,79,0.00,,,0.00,Wunderground v.1.15,2013-05-08 13:30:00,
2013-05-08 09:31:00,61.9,55.3,30.11,SSW,192,0.0,2.0,79,0.00,,,0.00,Wunderground v.1.15,2013-05-08 13:31:00,
2013-05-08 09:33:00,62.0,55.4,30.11,SE,138,0.0,2.0,79,0.00,,,0.00,Wunderground v.1.15,2013-05-08 13:33:00,
2013-05-08 09:34:00,62.1,55.9,30.11,West,276,0.0,2.0,80,0.00,,,0.00,Wunderground v.1.15,2013-05-08 13:34:00,
2013-05-08 09:36:00,62.3,56.0,30.11,South,182,7.0,8.0,80,0.00,,,0.00,Wunderground v.1.15,2013-05-08 13:36:00,
2013-05-08 09:37:00,62.3,55.4,30.11,East,90,1.0,9.0,78,0.00,,,0.00,Wunderground v.1.15,2013-05-08 13:37:00,
2013-05-08 09:38:00,62.3,55.7,30.10,SSW,200,5.0,9.0,79,0.00,,,0.00,Wunderground v.1.15,2013-05-08 13:38:00,
2013-05-08 09:40:00,62.4,55.1,30.11,South,183,0.0,2.0,77,0.00,,,0.00,Wunderground v.1.15,2013-05-08 13:40:00,
2013-05-08 09:41:00,62.5,55.2,30.10,South,183,3.0,5.0,77,0.00,,,0.00,Wunderground v.1.15,2013-05-08 13:41:00,
2013-05-08 09:42:00,62.6,55.3,30.11,SSE,163,0.0,5.0,77,0.00,,,0.00,Wunderground v.1.15,2013-05-08 13:42:00,
2013-05-08 09:44:00,62.8,54.8,30.11,SSW,208,4.0,7.0,75,0.00,,,0.00,Wunderground v.1.15,2013-05-08 13:44:00,
2013-05-08 09:45:00,62.9,54.5,30.11,South,178,1.0,7.0,74,0.00,,,0.00,Wunderground v.1.15,2013-05-08 13:45:00,
2013-05-08 09:47:00,63.1,55.0,30.11,ESE,113,2.0,7.0,75,0.00,,,0.00,Wunderground v.1.15,2013-05-08 13:47:00,
2013-05-08 09:49:00,63.4,55.3,30.11,SE,144,2.0,7.0,75,0.00,,,0.00,Wunderground v.1.15,2013-05-08 13:49:00,
2013-05-08 09:50:00,63.5,55.4,30.11,South,180,0.0,5.0,75,0.00,,,0.00,Wunderground v.1.15,2013-05-08 13:50:00,
2013-05-08 09:53:00,63.6,55.2,30.11,SSE,163,6.0,11.0,74,0.00,,,0.00,Wunderground v.1.15,2013-05-08 13:53:00,
2013-05-08 09:55:00,63.8,55.4,30.11,South,181,0.0,11.0,74,0.00,,,0.00,Wunderground v.1.15,2013-05-08 13:55:00,
2013-05-08 09:56:00,63.8,55.4,30.11,NE,55,3.0,11.0,74,0.00,,,0.00,Wunderground v.1.15,2013-05-08 13:56:00,
2013-05-08 09:58:00,63.8,54.6,30.11,East,82,5.0,11.0,72,0.00,,,0.00,Wunderground v.1.15,2013-05-08 13:58:00,
2013-05-08 10:01:00,63.4,54.6,30.11,ESE,119,0.0,2.0,73,0.00,,,0.00,Wunderground v.1.15,2013-05-08 14:01:00,
2013-05-08 10:03:00,63.0,54.6,30.11,South,183,1.0,4.0,74,0.00,,,0.00,Wunderground v.1.15,2013-05-08 14:03:00,
2013-05-08 10:04:00,63.0,54.6,30.11,South,183,2.0,4.0,74,0.00,,,0.00,Wunderground v.1.15,2013-05-08 14:04:00,
2013-05-08 10:06:00,62.6,54.6,30.11,SSW,193,2.0,4.0,75,0.00,,,0.00,Wunderground v.1.15,2013-05-08 14:06:00,
2013-05-08 10:07:00,62.6,54.9,30.11,SW,232,2.0,4.0,76,0.00,,,0.00,Wunderground v.1.15,2013-05-08 14:07:00,
2013-05-08 10:08:00,62.7,54.7,30.11,East,82,0.0,6.0,75,0.00,,,0.00,Wunderground v.1.15,2013-05-08 14:08:00,
2013-05-08 10:09:00,62.7,54.7,30.11,East,101,0.0,6.0,75,0.00,,,0.00,Wunderground v.1.15,2013-05-08 14:09:00,
2013-05-08 10:11:00,63.1,55.0,30.11,SE,136,4.0,5.0,75,0.00,,,0.00,Wunderground v.1.15,2013-05-08 14:11:00,
2013-05-08 10:13:00,63.2,54.8,30.11,ESE,122,0.0,6.0,74,0.00,,,0.00,Wunderground v.1.15,2013-05-08 14:13:00,
2013-05-08 10:14:00,63.2,54.8,30.10,SE,142,4.0,7.0,74,0.00,,,0.00,Wunderground v.1.15,2013-05-08 14:14:00,
2013-05-08 10:16:00,63.2,54.8,30.11,NE,55,0.0,7.0,74,0.00,,,0.00,Wunderground v.1.15,2013-05-08 14:16:00,
2013-05-08 10:18:00,63.3,54.9,30.11,ENE,71,2.0,7.0,74,0.00,,,0.00,Wunderground v.1.15,2013-05-08 14:18:00,
2013-05-08 10:19:00,63.3,54.9,30.10,NNE,21,4.0,7.0,74,0.00,,,0.00,Wunderground v.1.15,2013-05-08 14:19:00,
2013-05-08 10:21:00,63.3,55.2,30.11,South,184,0.0,4.0,75,0.00,,,0.00,Wunderground v.1.15,2013-05-08 14:21:00,
2013-05-08 10:24:00,63.2,54.8,30.10,ENE,57,4.0,7.0,74,0.00,,,0.00,Wunderground v.1.15,2013-05-08 14:24:00,
2013-05-08 10:25:00,63.1,54.3,30.11,North,355,0.0,7.0,73,0.00,,,0.00,Wunderground v.1.15,2013-05-08 14:25:00,
2013-05-08 10:27:00,63.1,54.7,30.10,ESE,118,4.0,7.0,74,0.00,,,0.00,Wunderground v.1.15,2013-05-08 14:27:00,
2013-05-08 10:29:00,63.1,54.3,30.10,NNE,28,0.0,7.0,73,0.00,,,0.00,Wunderground v.1.15,2013-05-08 14:29:00,
2013-05-08 10:31:00,63.1,54.3,30.11,ESE,107,5.0,5.0,73,0.00,,,0.00,Wunderground v.1.15,2013-05-08 14:31:00,
2013-05-08 10:32:00,63.1,54.3,30.11,ESE,121,0.0,6.0,73,0.00,,,0.00,Wunderground v.1.15,2013-05-08 14:32:00,
2013-05-08 10:34:00,63.1,54.3,30.11,West,267,1.0,7.0,73,0.00,,,0.00,Wunderground v.1.15,2013-05-08 14:34:00,
2013-05-08 10:36:00,63.1,54.7,30.11,SSE,150,0.0,7.0,74,0.00,,,0.00,Wunderground v.1.15,2013-05-08 14:36:00,
2013-05-08 10:37:00,63.1,54.7,30.11,SSE,158,0.0,7.0,74,0.00,,,0.00,Wunderground v.1.15,2013-05-08 14:37:00,
2013-05-08 10:39:00,63.1,54.3,30.11,South,183,2.0,7.0,73,0.00,,,0.00,Wunderground v.1.15,2013-05-08 14:39:00,
2013-05-08 10:40:00,63.1,54.3,30.10,SSW,211,3.0,7.0,73,0.00,,,0.00,Wunderground v.1.15,2013-05-08 14:40:00,
2013-05-08 10:42:00,63.1,54.7,30.10,NE,49,7.0,8.0,74,0.00,,,0.00,Wunderground v.1.15,2013-05-08 14:42:00,
2013-05-08 10:45:00,63.2,55.5,30.10,North,360,1.0,8.0,76,0.00,,,0.00,Wunderground v.1.15,2013-05-08 14:45:00,
2013-05-08 10:47:00,63.3,54.9,30.10,SSW,211,1.0,8.0,74,0.00,,,0.00,Wunderground v.1.15,2013-05-08 14:47:00,
2013-05-08 10:50:00,63.4,55.0,30.10,WSW,255,2.0,3.0,74,0.00,,,0.00,Wunderground v.1.15,2013-05-08 14:50:00,
2013-05-08 10:51:00,63.4,55.0,30.10,WSW,240,0.0,3.0,74,0.00,,,0.00,Wunderground v.1.15,2013-05-08 14:51:00,
2013-05-08 10:52:00,63.4,55.0,30.10,NW,310,0.0,3.0,74,0.00,,,0.00,Wunderground v.1.15,2013-05-08 14:52:00,
2013-05-08 10:53:00,63.4,55.0,30.10,West,270,0.0,3.0,74,0.00,,,0.00,Wunderground v.1.15,2013-05-08 14:53:00,
2013-05-08 10:55:00,63.6,54.8,30.10,SSW,207,6.0,6.0,73,0.00,,,0.00,Wunderground v.1.15,2013-05-08 14:55:00,
2013-05-08 10:56:00,63.6,54.8,30.10,South,190,6.0,11.0,73,0.00,,,0.00,Wunderground v.1.15,2013-05-08 14:56:00,
2013-05-08 10:57:00,63.6,54.0,30.10,South,181,0.0,11.0,71,0.00,,,0.00,Wunderground v.1.15,2013-05-08 14:57:00,
2013-05-08 10:58:00,63.8,54.6,30.10,East,79,3.0,11.0,72,0.00,,,0.00,Wunderground v.1.15,2013-05-08 14:58:00,
2013-05-08 11:01:00,64.4,54.4,30.10,NNE,30,0.0,6.0,70,0.00,,,0.00,Wunderground v.1.15,2013-05-08 15:01:00,
2013-05-08 11:02:00,64.7,54.7,30.10,SSE,163,4.0,7.0,70,0.00,,,0.00,Wunderground v.1.15,2013-05-08 15:02:00,
2013-05-08 11:03:00,64.8,54.0,30.10,South,169,1.0,7.0,68,0.00,,,0.00,Wunderground v.1.15,2013-05-08 15:03:00,
2013-05-08 11:06:00,65.0,53.8,30.10,East,93,1.0,12.0,67,0.00,,,0.00,Wunderground v.1.15,2013-05-08 15:06:00,
2013-05-08 11:07:00,64.9,53.7,30.10,SSE,148,1.0,12.0,67,0.00,,,0.00,Wunderground v.1.15,2013-05-08 15:07:00,
2013-05-08 11:09:00,64.6,53.8,30.10,WNW,288,1.0,12.0,68,0.00,,,0.00,Wunderground v.1.15,2013-05-08 15:09:00,
2013-05-08 11:12:00,64.4,54.0,30.10,North,355,0.0,6.0,69,0.00,,,0.00,Wunderground v.1.15,2013-05-08 15:12:00,
2013-05-08 11:13:00,64.3,54.3,30.10,NNE,30,0.0,6.0,70,0.00,,,0.00,Wunderground v.1.15,2013-05-08 15:13:00,
2013-05-08 11:14:00,64.3,54.7,30.10,SW,225,3.0,6.0,71,0.00,,,0.00,Wunderground v.1.15,2013-05-08 15:14:00,
2013-05-08 11:17:00,64.3,54.3,30.10,SSW,206,0.0,6.0,70,0.00,,,0.00,Wunderground v.1.15,2013-05-08 15:17:00,
2013-05-08 11:18:00,64.3,54.3,30.10,SSW,206,1.0,6.0,70,0.00,,,0.00,Wunderground v.1.15,2013-05-08 15:18:00,
2013-05-08 11:19:00,64.1,54.5,30.10,NW,326,1.0,6.0,71,0.00,,,0.00,Wunderground v.1.15,2013-05-08 15:19:00,
2013-05-08 11:22:00,64.1,54.9,30.10,SSW,204,3.0,5.0,72,0.00,,,0.00,Wunderground v.1.15,2013-05-08 15:22:00,
2013-05-08 11:23:00,64.1,54.9,30.10,SSW,209,1.0,5.0,72,0.00,,,0.00,Wunderground v.1.15,2013-05-08 15:23:00,
2013-05-08 11:24:00,64.1,54.9,30.10,SE,125,0.0,5.0,72,0.00,,,0.00,Wunderground v.1.15,2013-05-08 15:24:00,
2013-05-08 11:25:00,64.0,54.8,30.10,NNE,22,1.0,5.0,72,0.00,,,0.00,Wunderground v.1.15,2013-05-08 15:25:00,
2013-05-08 11:28:00,64.0,54.8,30.10,East,90,0.0,8.0,72,0.00,,,0.00,Wunderground v.1.15,2013-05-08 15:28:00,
2013-05-08 11:30:00,63.9,54.7,30.10,ENE,62,0.0,9.0,72,0.00,,,0.00,Wunderground v.1.15,2013-05-08 15:30:00,
2013-05-08 11:31:00,63.8,54.6,30.10,ENE,60,0.0,2.0,72,0.00,,,0.00,Wunderground v.1.15,2013-05-08 15:31:00,
2013-05-08 11:33:00,63.8,55.0,30.10,SSW,196,1.0,4.0,73,0.00,,,0.00,Wunderground v.1.15,2013-05-08 15:33:00,
2013-05-08 11:35:00,63.8,55.0,30.10,ENE,67,6.0,7.0,73,0.00,,,0.00,Wunderground v.1.15,2013-05-08 15:35:00,
2013-05-08 11:36:00,63.8,55.0,30.09,SE,146,0.0,7.0,73,0.00,,,0.00,Wunderground v.1.15,2013-05-08 15:36:00,
2013-05-08 11:38:00,63.9,54.7,30.09,SSE,156,2.0,7.0,72,0.00,,,0.00,Wunderground v.1.15,2013-05-08 15:38:00,
2013-05-08 11:39:00,64.0,54.8,30.10,SW,228,3.0,7.0,72,0.00,,,0.00,Wunderground v.1.15,2013-05-08 15:39:00,
2013-05-08 11:40:00,64.0,54.8,30.09,SE,136,2.0,2.0,72,0.00,,,0.00,Wunderground v.1.15,2013-05-08 15:40:00,
2013-05-08 11:41:00,64.0,54.8,30.09,SE,133,0.0,2.0,72,0.00,,,0.00,Wunderground v.1.15,2013-05-08 15:41:00,
2013-05-08 11:43:00,64.1,54.9,30.09,South,178,2.0,4.0,72,0.00,,,0.00,Wunderground v.1.15,2013-05-08 15:43:00,
2013-05-08 11:44:00,64.1,54.9,30.09,SSE,161,1.0,4.0,72,0.00,,,0.00,Wunderground v.1.15,2013-05-08 15:44:00,
2013-05-08 11:46:00,64.1,54.9,30.09,SW,235,2.0,4.0,72,0.00,,,0.00,Wunderground v.1.15,2013-05-08 15:46:00,
2013-05-08 11:48:00,63.9,54.3,30.09,West,261,5.0,10.0,71,0.00,,,0.00,Wunderground v.1.15,2013-05-08 15:48:00,
2013-05-08 11:49:00,63.9,54.7,30.09,WNW,295,0.0,10.0,72,0.00,,,0.00,Wunderground v.1.15,2013-05-08 15:49:00,
2013-05-08 11:51:00,63.8,54.6,30.09,SSE,165,0.0,4.0,72,0.00,,,0.00,Wunderground v.1.15,2013-05-08 15:51:00,
2013-05-08 11:53:00,63.6,54.4,30.09,SSE,154,0.0,7.0,72,0.00,,,0.00,Wunderground v.1.15,2013-05-08 15:53:00,
2013-05-08 11:54:00,63.6,54.8,30.09,South,172,4.0,7.0,73,0.00,,,0.00,Wunderground v.1.15,2013-05-08 15:54:00,
2013-05-08 11:55:00,63.6,54.8,30.09,SSE,160,1.0,7.0,73,0.00,,,0.00,Wunderground v.1.15,2013-05-08 15:55:00,
2013-05-08 11:56:00,63.5,55.1,30.09,ESE,114,5.0,7.0,74,0.00,,,0.00,Wunderground v.1.15,2013-05-08 15:56:00,
2013-05-08 11:59:00,63.0,56.4,30.09,ESE,109,1.0,7.0,79,0.00,,,0.00,Wunderground v.1.15,2013-05-08 15:59:00,
2013-05-08 12:00:00,63.0,56.4,30.09,ESE,109,1.0,2.0,79,0.00,,,0.00,Wunderground v.1.15,2013-05-08 16:00:00,
2013-05-08 12:01:00,63.0,56.4,30.09,ESE,109,1.0,2.0,79,0.00,,,0.00,Wunderground v.1.15,2013-05-08 16:01:00,
2013-05-08 12:04:00,62.6,58.4,30.09,ENE,77,5.0,8.0,86,0.00,,,0.00,Wunderground v.1.15,2013-05-08 16:04:00,
2013-05-08 12:05:00,62.5,57.9,30.09,SE,124,5.0,8.0,85,0.00,,,0.00,Wunderground v.1.15,2013-05-08 16:05:00,
2013-05-08 12:06:00,62.6,58.4,30.09,NNE,17,2.0,8.0,86,0.00,,,0.00,Wunderground v.1.15,2013-05-08 16:06:00,
2013-05-08 12:09:00,62.9,59.0,30.09,NE,53,1.0,12.0,87,0.00,,,0.00,Wunderground v.1.15,2013-05-08 16:09:00,
2013-05-08 12:10:00,63.0,59.1,30.09,NNE,30,2.0,12.0,87,0.00,,,0.00,Wunderground v.1.15,2013-05-08 16:10:00,
2013-05-08 12:11:00,63.1,59.5,30.09,East,82,1.0,4.0,88,0.00,,,0.00,Wunderground v.1.15,2013-05-08 16:11:00,
2013-05-08 12:12:00,63.2,59.3,30.09,East,94,0.0,4.0,87,0.00,,,0.00,Wunderground v.1.15,2013-05-08 16:12:00,
2013-05-08 12:14:00,63.4,58.5,30.09,WNW,300,0.0,6.0,84,0.00,,,0.00,Wunderground v.1.15,2013-05-08 16:14:00,
2013-05-08 12:16:00,63.6,58.3,30.09,ESE,112,6.0,6.0,83,0.00,,,0.00,Wunderground v.1.15,2013-05-08 16:16:00,
2013-05-08 12:17:00,63.7,58.4,30.09,NNE,32,8.0,10.0,83,0.00,,,0.00,Wunderground v.1.15,2013-05-08 16:17:00,
2013-05-08 12:20:00,63.7,58.1,30.09,North,351,3.0,3.0,82,0.00,,,0.00,Wunderground v.1.15,2013-05-08 16:20:00,
2013-05-08 12:21:00,63.8,58.9,30.08,North,9,3.0,3.0,84,0.00,,,0.00,Wunderground v.1.15,2013-05-08 16:21:00,
2013-05-08 12:22:00,63.9,59.0,30.08,NNE,31,4.0,4.0,84,0.00,,,0.00,Wunderground v.1.15,2013-05-08 16:22:00,
2013-05-08 12:25:00,64.3,58.7,30.08,ENE,57,7.0,7.0,82,0.00,,,0.00,Wunderground v.1.15,2013-05-08 16:25:00,
2013-05-08 12:27:00,64.2,57.5,30.08,East,82,3.0,7.0,79,0.00,,,0.00,Wunderground v.1.15,2013-05-08 16:27:00,
2013-05-08 12:30:00,64.1,57.8,30.08,NNE,12,4.0,8.0,80,0.00,,,0.00,Wunderground v.1.15,2013-05-08 16:30:00,
2013-05-08 12:32:00,64.0,57.4,30.08,NE,53,4.0,10.0,79,0.00,,,0.00,Wunderground v.1.15,2013-05-08 16:32:00,
2013-05-08 12:35:00,64.3,58.3,30.08,South,190,1.0,10.0,81,0.00,,,0.00,Wunderground v.1.15,2013-05-08 16:35:00,
2013-05-08 12:37:00,64.4,58.1,30.08,NNE,22,7.0,10.0,80,0.00,,,0.00,Wunderground v.1.15,2013-05-08 16:37:00,
2013-05-08 12:38:00,64.6,58.3,30.08,NE,47,4.0,10.0,80,0.00,,,0.00,Wunderground v.1.15,2013-05-08 16:38:00,
2013-05-08 12:41:00,64.6,57.6,30.08,NE,49,10.0,10.0,78,0.00,,,0.00,Wunderground v.1.15,2013-05-08 16:41:00,
2013-05-08 12:42:00,64.4,57.4,30.07,NNE,22,1.0,10.0,78,0.00,,,0.00,Wunderground v.1.15,2013-05-08 16:42:00,
2013-05-08 12:44:00,64.4,57.7,30.07,North,11,5.0,10.0,79,0.00,,,0.00,Wunderground v.1.15,2013-05-08 16:44:00,
2013-05-08 12:47:00,64.1,57.1,30.07,East,91,6.0,10.0,78,0.00,,,0.00,Wunderground v.1.15,2013-05-08 16:47:00,
2013-05-08 12:48:00,64.1,57.1,30.07,SSW,194,0.0,10.0,78,0.00,,,0.00,Wunderground v.1.15,2013-05-08 16:48:00,
2013-05-08 12:49:00,64.0,57.4,30.07,East,94,4.0,10.0,79,0.00,,,0.00,Wunderground v.1.15,2013-05-08 16:49:00,
2013-05-08 12:52:00,64.0,57.4,30.07,WSW,257,1.0,4.0,79,0.00,,,0.00,Wunderground v.1.15,2013-05-08 16:52:00,
2013-05-08 12:53:00,64.0,57.4,30.07,South,185,0.0,4.0,79,0.00,,,0.00,Wunderground v.1.15,2013-05-08 16:53:00,
2013-05-08 12:54:00,64.2,57.9,30.06,East,101,2.0,6.0,80,0.00,,,0.00,Wunderground v.1.15,2013-05-08 16:54:00,
2013-05-08 12:55:00,64.4,57.7,30.06,NNW,338,4.0,6.0,79,0.00,,,0.00,Wunderground v.1.15,2013-05-08 16:55:00,
2013-05-08 12:58:00,65.5,57.7,30.06,NE,44,5.0,9.0,76,0.00,,,0.00,Wunderground v.1.15,2013-05-08 16:58:00,
2013-05-08 12:59:00,65.6,57.1,30.06,ENE,75,5.0,9.0,74,0.00,,,0.00,Wunderground v.1.15,2013-05-08 16:59:00,
2013-05-08 13:00:00,65.7,57.2,30.06,East,89,5.0,9.0,74,0.00,,,0.00,Wunderground v.1.15,2013-05-08 17:00:00,
2013-05-08 13:03:00,65.9,57.0,30.06,East,80,4.0,8.0,73,0.00,,,0.00,Wunderground v.1.15,2013-05-08 17:03:00,
2013-05-08 13:04:00,65.9,57.0,30.06,SE,140,1.0,8.0,73,0.00,,,0.00,Wunderground v.1.15,2013-05-08 17:04:00,
2013-05-08 13:05:00,65.8,56.9,30.06,NNW,345,0.0,8.0,73,0.00,,,0.00,Wunderground v.1.15,2013-05-08 17:05:00,
2013-05-08 13:06:00,65.8,57.3,30.06,NNE,26,1.0,8.0,74,0.00,,,0.00,Wunderground v.1.15,2013-05-08 17:06:00,
2013-05-08 13:09:00,65.5,56.6,30.06,NNW,343,1.0,8.0,73,0.00,,,0.00,Wunderground v.1.15,2013-05-08 17:09:00,
2013-05-08 13:10:00,65.5,56.6,30.06,NNE,26,4.0,4.0,73,0.00,,,0.00,Wunderground v.1.15,2013-05-08 17:10:00,
2013-05-08 13:12:00,65.4,56.9,30.06,East,99,5.0,6.0,74,0.00,,,0.00,Wunderground v.1.15,2013-05-08 17:12:00,
2013-05-08 13:14:00,65.6,56.7,30.06,South,175,1.0,6.0,73,0.00,,,0.00,Wunderground v.1.15,2013-05-08 17:14:00,
2013-05-08 13:15:00,65.6,56.3,30.06,East,80,3.0,8.0,72,0.00,,,0.00,Wunderground v.1.15,2013-05-08 17:15:00,
2013-05-08 13:17:00,65.6,56.3,30.06,SW,217,0.0,8.0,72,0.00,,,0.00,Wunderground v.1.15,2013-05-08 17:17:00,
2013-05-08 13:20:00,65.4,56.5,30.06,SSE,161,6.0,8.0,73,0.00,,,0.00,Wunderground v.1.15,2013-05-08 17:20:00,
2013-05-08 13:22:00,65.3,56.4,30.06,East,97,0.0,3.0,73,0.00,,,0.00,Wunderground v.1.15,2013-05-08 17:22:00,
2013-05-08 13:25:00,65.3,56.8,30.06,East,95,2.0,10.0,74,0.00,,,0.00,Wunderground v.1.15,2013-05-08 17:25:00,
2013-05-08 13:26:00,65.3,57.2,30.05,East,95,2.0,10.0,75,0.00,,,0.00,Wunderground v.1.15,2013-05-08 17:26:00,
2013-05-08 13:27:00,65.4,56.9,30.06,ESE,116,4.0,10.0,74,0.00,,,0.00,Wunderground v.1.15,2013-05-08 17:27:00,
2013-05-08 13:30:00,65.4,56.9,30.06,North,9,3.0,10.0,74,0.00,,,0.00,Wunderground v.1.15,2013-05-08 17:30:00,
2013-05-08 13:31:00,65.4,56.9,30.06,East,93,2.0,6.0,74,0.00,,,0.00,Wunderground v.1.15,2013-05-08 17:31:00,
2013-05-08 13:32:00,65.5,57.0,30.05,ENE,75,0.0,8.0,74,0.00,,,0.00,Wunderground v.1.15,2013-05-08 17:32:00,
2013-05-08 13:35:00,65.5,57.0,30.06,North,351,2.0,8.0,74,0.00,,,0.00,Wunderground v.1.15,2013-05-08 17:35:00,
2013-05-08 13:36:00,65.4,56.9,30.06,SE,133,5.0,8.0,74,0.00,,,0.00,Wunderground v.1.15,2013-05-08 17:36:00,
2013-05-08 13:37:00,65.4,56.9,30.06,NE,46,4.0,8.0,74,0.00,,,0.00,Wunderground v.1.15,2013-05-08 17:37:00,
2013-05-08 13:40:00,65.2,56.7,30.05,North,355,1.0,2.0,74,0.00,,,0.00,Wunderground v.1.15,2013-05-08 17:40:00,
2013-05-08 13:41:00,65.2,56.7,30.05,NE,52,1.0,3.0,74,0.00,,,0.00,Wunderground v.1.15,2013-05-08 17:41:00,
2013-05-08 13:42:00,65.1,57.0,30.05,ENE,71,0.0,3.0,75,0.00,,,0.00,Wunderground v.1.15,2013-05-08 17:42:00,
2013-05-08 13:46:00,64.9,57.2,30.05,SSW,205,0.0,4.0,76,0.00,,,0.00,Wunderground v.1.15,2013-05-08 17:46:00,
2013-05-08 13:48:00,64.7,57.3,30.05,WNW,284,1.0,4.0,77,0.00,,,0.00,Wunderground v.1.15,2013-05-08 17:48:00,
2013-05-08 13:50:00,64.5,57.1,30.05,West,269,0.0,2.0,77,0.00,,,0.00,Wunderground v.1.15,2013-05-08 17:50:00,
2013-05-08 13:51:00,64.4,57.0,30.05,NNW,341,1.0,3.0,77,0.00,,,0.00,Wunderground v.1.15,2013-05-08 17:51:00,
2013-05-08 13:53:00,64.3,57.3,30.06,ENE,74,4.0,7.0,78,0.00,,,0.00,Wunderground v.1.15,2013-05-08 17:53:00,
2013-05-08 13:55:00,64.1,57.1,30.06,ESE,105,4.0,7.0,78,0.00,,,0.00,Wunderground v.1.15,2013-05-08 17:55:00,
2013-05-08 13:56:00,64.1,57.1,30.06,SSW,207,2.0,7.0,78,0.00,,,0.00,Wunderground v.1.15,2013-05-08 17:56:00,
2013-05-08 13:57:00,64.1,57.8,30.06,WSW,246,2.0,7.0,80,0.00,,,0.00,Wunderground v.1.15,2013-05-08 17:57:00,
2013-05-08 13:58:00,64.0,57.7,30.06,ESE,105,1.0,7.0,80,0.00,,,0.00,Wunderground v.1.15,2013-05-08 17:58:00,
2013-05-08 14:01:00,63.9,58.0,30.05,West,264,4.0,4.0,81,0.00,,,0.00,Wunderground v.1.15,2013-05-08 18:01:00,
2013-05-08 14:02:00,63.8,57.9,30.05,NE,42,4.0,4.0,81,0.00,,,0.00,Wunderground v.1.15,2013-05-08 18:02:00,
2013-05-08 14:04:00,63.5,57.6,30.06,ESE,120,0.0,7.0,81,0.56,,,0.02,Wunderground v.1.15,2013-05-08 18:04:00,
2013-05-08 14:06:00,63.2,57.9,30.06,SSW,205,0.0,7.0,83,0.22,,,0.03,Wunderground v.1.15,2013-05-08 18:06:00,
2013-05-08 14:07:00,63.0,58.4,30.06,SSW,198,3.0,7.0,85,0.22,,,0.03,Wunderground v.1.15,2013-05-08 18:07:00,
2013-05-08 14:09:00,62.7,58.5,30.06,West,276,2.0,7.0,86,0.17,,,0.03,Wunderground v.1.15,2013-05-08 18:09:00,
2013-05-08 14:11:00,62.5,58.6,30.05,SSW,196,1.0,1.0,87,0.11,,,0.03,Wunderground v.1.15,2013-05-08 18:11:00,
2013-05-08 14:12:00,62.5,58.6,30.06,South,184,2.0,5.0,87,0.09,,,0.03,Wunderground v.1.15,2013-05-08 18:12:00,
2013-05-08 14:14:00,62.6,58.7,30.05,East,92,0.0,5.0,87,0.07,,,0.03,Wunderground v.1.15,2013-05-08 18:14:00,
2013-05-08 14:16:00,62.9,59.6,30.05,ENE,63,3.0,5.0,89,0.06,,,0.03,Wunderground v.1.15,2013-05-08 18:16:00,
2013-05-08 14:17:00,63.0,59.7,30.05,East,79,2.0,5.0,89,0.05,,,0.03,Wunderground v.1.15,2013-05-08 18:17:00,
2013-05-08 14:19:00,63.6,60.3,30.05,ESE,114,0.0,6.0,89,0.04,,,0.03,Wunderground v.1.15,2013-05-08 18:19:00,
2013-05-08 14:21:00,63.9,60.9,30.05,NE,43,0.0,4.0,90,0.04,,,0.03,Wunderground v.1.15,2013-05-08 18:21:00,
2013-05-08 14:22:00,64.0,60.4,30.05,ESE,102,1.0,9.0,88,0.04,,,0.03,Wunderground v.1.15,2013-05-08 18:22:00,
2013-05-08 14:25:00,64.4,59.8,30.05,South,182,1.0,9.0,85,0.00,,,0.03,Wunderground v.1.15,2013-05-08 18:25:00,
2013-05-08 14:26:00,64.5,60.2,30.05,SE,130,0.0,9.0,86,0.00,,,0.03,Wunderground v.1.15,2013-05-08 18:26:00,
2013-05-08 14:27:00,64.6,60.3,30.05,SSW,200,0.0,9.0,86,0.00,,,0.03,Wunderground v.1.15,2013-05-08 18:27:00,
2013-05-08 14:28:00,64.7,60.4,30.04,SSW,200,0.0,9.0,86,0.00,,,0.03,Wunderground v.1.15,2013-05-08 18:28:00,
2013-05-08 14:30:00,65.0,59.7,30.04,WNW,295,0.0,2.0,83,0.00,,,0.03,Wunderground v.1.15,2013-05-08 18:30:00,
2013-05-08 14:31:00,65.1,59.8,30.04,SE,144,2.0,5.0,83,0.00,,,0.03,Wunderground v.1.15,2013-05-08 18:31:00,
2013-05-08 14:33:00,65.1,59.5,30.04,South,186,0.0,5.0,82,0.00,,,0.03,Wunderground v.1.15,2013-05-08 18:33:00,
2013-05-08 14:34:00,65.0,59.4,30.04,South,186,0.0,5.0,82,0.00,,,0.03,Wunderground v.1.15,2013-05-08 18:34:00,
2013-05-08 14:35:00,64.9,58.9,30.04,South,172,5.0,6.0,81,0.00,,,0.03,Wunderground v.1.15,2013-05-08 18:35:00,
2013-05-08 14:36:00,64.9,58.6,30.04,South,170,0.0,7.0,80,0.00,,,0.03,Wunderground v.1.15,2013-05-08 18:36:00,
2013-05-08 14:38:00,64.5,58.9,30.05,ESE,111,0.0,7.0,82,0.99,,,0.05,Wunderground v.1.15,2013-05-08 18:38:00,
2013-05-08 14:39:00,64.5,58.9,30.04,SSE,165,0.0,7.0,82,0.99,,,0.06,Wunderground v.1.15,2013-05-08 18:39:00,
2013-05-08 14:41:00,63.7,58.1,30.04,SW,234,2.0,5.0,82,0.27,,,0.07,Wunderground v.1.15,2013-05-08 18:41:00,
2013-05-08 14:42:00,63.6,58.3,30.05,WSW,241,2.0,5.0,83,0.27,,,0.07,Wunderground v.1.15,2013-05-08 18:42:00,
2013-05-08 14:44:00,63.0,58.1,30.05,SSE,150,5.0,10.0,84,1.22,,,0.12,Wunderground v.1.15,2013-05-08 18:44:00,
2013-05-08 14:45:00,62.6,58.0,30.05,South,184,1.0,10.0,85,0.84,,,0.13,Wunderground v.1.15,2013-05-08 18:45:00,
2013-05-08 14:47:00,61.8,57.9,30.05,WNW,282,0.0,10.0,87,0.44,,,0.14,Wunderground v.1.15,2013-05-08 18:47:00,
2013-05-08 14:49:00,61.3,57.7,30.05,NNE,12,1.0,10.0,88,0.18,,,0.14,Wunderground v.1.15,2013-05-08 18:49:00,
2013-05-08 14:50:00,61.1,57.5,30.05,SW,226,1.0,10.0,88,0.14,,,0.14,Wunderground v.1.15,2013-05-08 18:50:00,
2013-05-08 14:52:00,60.7,57.4,30.05,East,84,6.0,8.0,89,0.10,,,0.14,Wunderground v.1.15,2013-05-08 18:52:00,
2013-05-08 14:53:00,60.5,57.2,30.04,NW,325,5.0,8.0,89,0.10,,,0.15,Wunderground v.1.15,2013-05-08 18:53:00,
2013-05-08 14:54:00,60.3,57.4,30.04,North,5,0.0,8.0,90,0.10,,,0.15,Wunderground v.1.15,2013-05-08 18:54:00,
2013-05-08 14:55:00,60.3,57.7,30.04,NW,311,1.0,8.0,91,0.10,,,0.15,Wunderground v.1.15,2013-05-08 18:55:00,
2013-05-08 14:57:00,60.2,57.9,30.04,East,88,7.0,13.0,92,0.10,,,0.15,Wunderground v.1.15,2013-05-08 18:57:00,
2013-05-08 14:58:00,60.1,57.8,30.04,NE,49,4.0,13.0,92,0.09,,,0.15,Wunderground v.1.15,2013-05-08 18:58:00,
2013-05-08 14:59:00,60.0,57.7,30.04,NE,44,0.0,13.0,92,0.08,,,0.15,Wunderground v.1.15,2013-05-08 18:59:00,
2013-05-08 15:00:00,60.1,58.1,30.04,South,174,0.0,3.0,93,0.07,,,0.15,Wunderground v.1.15,2013-05-08 19:00:00,
2013-05-08 15:02:00,60.4,58.7,30.04,SSW,211,0.0,3.0,94,0.06,,,0.15,Wunderground v.1.15,2013-05-08 19:02:00,
2013-05-08 15:03:00,60.6,59.2,30.04,SSW,211,1.0,3.0,95,0.05,,,0.15,Wunderground v.1.15,2013-05-08 19:03:00,
2013-05-08 15:04:00,60.6,58.9,30.04,SW,219,0.0,6.0,94,0.05,,,0.15,Wunderground v.1.15,2013-05-08 19:04:00,
2013-05-08 15:06:00,60.5,58.5,30.04,East,98,9.0,9.0,93,0.04,,,0.15,Wunderground v.1.15,2013-05-08 19:06:00,
2013-05-08 15:07:00,60.4,58.1,30.04,North,355,2.0,9.0,92,0.04,,,0.15,Wunderground v.1.15,2013-05-08 19:07:00,
2013-05-08 15:08:00,60.3,58.3,30.04,ENE,69,0.0,9.0,93,0.04,,,0.15,Wunderground v.1.15,2013-05-08 19:08:00,
2013-05-08 15:09:00,60.3,58.3,30.03,NNW,330,0.0,9.0,93,0.00,,,0.15,Wunderground v.1.15,2013-05-08 19:09:00,
2013-05-08 15:11:00,60.3,58.3,30.04,West,277,0.0,1.0,93,0.00,,,0.15,Wunderground v.1.15,2013-05-08 19:11:00,
2013-05-08 15:12:00,60.4,58.4,30.04,North,355,2.0,4.0,93,0.00,,,0.15,Wunderground v.1.15,2013-05-08 19:12:00,
2013-05-08 15:14:00,60.4,58.4,30.03,ENE,65,2.0,5.0,93,0.00,,,0.15,Wunderground v.1.15,2013-05-08 19:14:00,
2013-05-08 15:15:00,60.3,58.0,30.04,East,80,0.0,7.0,92,0.00,,,0.15,Wunderground v.1.15,2013-05-08 19:15:00,
2013-05-08 15:16:00,60.2,58.2,30.04,ESE,113,7.0,7.0,93,0.00,,,0.15,Wunderground v.1.15,2013-05-08 19:16:00,
2013-05-08 15:18:00,60.2,57.9,30.04,ENE,63,0.0,7.0,92,0.00,,,0.15,Wunderground v.1.15,2013-05-08 19:18:00,
2013-05-08 15:19:00,60.1,57.8,30.04,East,98,0.0,7.0,92,0.00,,,0.15,Wunderground v.1.15,2013-05-08 19:19:00,
2013-05-08 15:20:00,60.1,57.8,30.04,ENE,65,0.0,1.0,92,0.00,,,0.15,Wunderground v.1.15,2013-05-08 19:20:00,
2013-05-08 15:21:00,60.1,57.8,30.04,South,171,1.0,1.0,92,0.00,,,0.15,Wunderground v.1.15,2013-05-08 19:21:00,
2013-05-08 15:23:00,60.0,58.0,30.04,WSW,257,4.0,4.0,93,0.00,,,0.15,Wunderground v.1.15,2013-05-08 19:23:00,
2013-05-08 15:25:00,60.0,58.0,30.04,SW,219,0.0,5.0,93,0.00,,,0.15,Wunderground v.1.15,2013-05-08 19:25:00,
2013-05-08 15:26:00,60.0,58.0,30.04,SW,219,0.0,5.0,93,0.00,,,0.15,Wunderground v.1.15,2013-05-08 19:26:00,
2013-05-08 15:29:00,60.0,58.0,30.04,East,90,0.0,5.0,93,0.00,,,0.15,Wunderground v.1.15,2013-05-08 19:29:00,
2013-05-08 15:30:00,60.0,58.0,30.04,East,90,0.0,1.0,93,0.00,,,0.15,Wunderground v.1.15,2013-05-08 19:30:00,
2013-05-08 15:31:00,60.1,58.1,30.04,NW,316,3.0,3.0,93,0.00,,,0.15,Wunderground v.1.15,2013-05-08 19:31:00,
2013-05-08 15:32:00,60.1,58.1,30.03,West,281,0.0,3.0,93,0.00,,,0.15,Wunderground v.1.15,2013-05-08 19:32:00,
2013-05-08 15:35:00,60.2,58.2,30.03,West,271,0.0,3.0,93,0.00,,,0.15,Wunderground v.1.15,2013-05-08 19:35:00,
2013-05-08 15:36:00,60.3,58.3,30.03,South,191,0.0,3.0,93,0.00,,,0.15,Wunderground v.1.15,2013-05-08 19:36:00,
2013-05-08 15:37:00,60.3,58.0,30.04,ENE,67,0.0,3.0,92,0.00,,,0.15,Wunderground v.1.15,2013-05-08 19:37:00,
2013-05-08 15:40:00,60.3,57.7,30.03,ENE,76,0.0,3.0,91,0.00,,,0.15,Wunderground v.1.15,2013-05-08 19:40:00,
2013-05-08 15:41:00,60.3,57.7,30.04,SW,220,0.0,4.0,91,0.00,,,0.15,Wunderground v.1.15,2013-05-08 19:41:00,
2013-05-08 15:42:00,60.3,57.7,30.04,South,184,0.0,4.0,91,0.00,,,0.15,Wunderground v.1.15,2013-05-08 19:42:00,
2013-05-08 15:45:00,60.4,57.8,30.03,NNW,338,1.0,4.0,91,0.00,,,0.15,Wunderground v.1.15,2013-05-08 19:45:00,
2013-05-08 15:46:00,60.5,57.9,30.03,SSW,209,1.0,4.0,91,0.00,,,0.15,Wunderground v.1.15,2013-05-08 19:46:00,
2013-05-08 15:47:00,60.6,58.0,30.03,SSW,210,0.0,4.0,91,0.00,,,0.15,Wunderground v.1.15,2013-05-08 19:47:00,
2013-05-08 15:51:00,61.0,58.7,30.03,NW,306,1.0,1.0,92,0.00,,,0.15,Wunderground v.1.15,2013-05-08 19:51:00,
2013-05-08 15:52:00,61.2,58.2,30.03,West,271,0.0,3.0,90,0.00,,,0.15,Wunderground v.1.15,2013-05-08 19:52:00,
2013-05-08 15:53:00,61.2,58.2,30.03,SSE,161,0.0,3.0,90,0.00,,,0.15,Wunderground v.1.15,2013-05-08 19:53:00,
2013-05-08 15:56:00,61.6,58.6,30.03,ENE,58,0.0,4.0,90,0.00,,,0.15,Wunderground v.1.15,2013-05-08 19:56:00,
2013-05-08 15:57:00,61.7,58.7,30.03,North,355,0.0,4.0,90,0.00,,,0.15,Wunderground v.1.15,2013-05-08 19:57:00,
2013-05-08 15:59:00,61.8,58.8,30.03,NE,35,1.0,4.0,90,0.00,,,0.15,Wunderground v.1.15,2013-05-08 19:59:00,
2013-05-08 16:01:00,62.0,59.0,30.03,East,82,3.0,4.0,90,0.00,,,0.15,Wunderground v.1.15,2013-05-08 20:01:00,
2013-05-08 16:02:00,62.0,59.0,30.03,South,190,5.0,5.0,90,0.00,,,0.15,Wunderground v.1.15,2013-05-08 20:02:00,
2013-05-08 16:03:00,62.1,58.5,30.03,SE,142,0.0,5.0,88,0.00,,,0.15,Wunderground v.1.15,2013-05-08 20:03:00,
2013-05-08 16:04:00,62.2,59.2,30.03,SSE,167,1.0,5.0,90,0.00,,,0.15,Wunderground v.1.15,2013-05-08 20:04:00,
2013-05-08 16:07:00,62.3,58.4,30.03,SE,144,2.0,5.0,87,0.00,,,0.15,Wunderground v.1.15,2013-05-08 20:07:00,
2013-05-08 16:08:00,62.3,58.7,30.03,SSE,162,0.0,5.0,88,0.00,,,0.15,Wunderground v.1.15,2013-05-08 20:08:00,
2013-05-08 16:09:00,62.3,58.7,30.03,South,175,0.0,5.0,88,0.00,,,0.15,Wunderground v.1.15,2013-05-08 20:09:00,
2013-05-08 16:12:00,62.3,58.7,30.03,SW,235,1.0,2.0,88,0.00,,,0.15,Wunderground v.1.15,2013-05-08 20:12:00,
2013-05-08 16:13:00,62.3,58.7,30.03,ENE,76,0.0,2.0,88,0.00,,,0.15,Wunderground v.1.15,2013-05-08 20:13:00,
2013-05-08 16:14:00,62.2,58.0,30.03,South,188,0.0,5.0,86,0.00,,,0.15,Wunderground v.1.15,2013-05-08 20:14:00,
2013-05-08 16:17:00,62.1,57.9,30.03,SE,138,0.0,9.0,86,0.00,,,0.15,Wunderground v.1.15,2013-05-08 20:17:00,
2013-05-08 16:18:00,62.1,57.9,30.03,SSW,198,0.0,9.0,86,0.00,,,0.15,Wunderground v.1.15,2013-05-08 20:18:00,
2013-05-08 16:20:00,62.1,58.2,30.03,NNE,12,2.0,9.0,87,0.00,,,0.15,Wunderground v.1.15,2013-05-08 20:20:00,
2013-05-08 16:23:00,62.0,58.1,30.03,East,91,0.0,4.0,87,0.00,,,0.15,Wunderground v.1.15,2013-05-08 20:23:00,
2013-05-08 16:25:00,61.8,57.9,30.03,SW,217,1.0,5.0,87,0.00,,,0.15,Wunderground v.1.15,2013-05-08 20:25:00,
2013-05-08 16:28:00,61.6,57.7,30.03,SW,217,0.0,5.0,87,0.00,,,0.15,Wunderground v.1.15,2013-05-08 20:28:00,
2013-05-08 16:30:00,61.6,58.0,30.03,ESE,119,1.0,5.0,88,0.00,,,0.15,Wunderground v.1.15,2013-05-08 20:30:00,
2013-05-08 16:33:00,61.5,57.6,30.03,NNE,20,0.0,5.0,87,0.00,,,0.15,Wunderground v.1.15,2013-05-08 20:33:00,
2013-05-08 16:34:00,61.5,57.9,30.02,NNE,25,1.0,5.0,88,0.00,,,0.15,Wunderground v.1.15,2013-05-08 20:34:00,
2013-05-08 16:35:00,61.5,57.6,30.02,WNW,292,0.0,5.0,87,0.00,,,0.15,Wunderground v.1.15,2013-05-08 20:35:00,
2013-05-08 16:36:00,61.5,57.6,30.02,ENE,64,3.0,5.0,87,0.00,,,0.15,Wunderground v.1.15,2013-05-08 20:36:00,
2013-05-08 16:38:00,61.4,57.5,30.02,NE,53,1.0,5.0,87,0.00,,,0.15,Wunderground v.1.15,2013-05-08 20:38:00,
2013-05-08 16:39:00,61.4,57.5,30.02,NE,42,3.0,5.0,87,0.00,,,0.15,Wunderground v.1.15,2013-05-08 20:39:00,
2013-05-08 16:40:00,61.4,57.5,30.02,ESE,103,0.0,1.0,87,0.00,,,0.15,Wunderground v.1.15,2013-05-08 20:40:00,
2013-05-08 16:41:00,61.4,57.5,30.02,ESE,103,0.0,1.0,87,0.00,,,0.15,Wunderground v.1.15,2013-05-08 20:41:00,
2013-05-08 16:43:00,61.4,57.5,30.02,SE,140,0.0,5.0,87,0.00,,,0.15,Wunderground v.1.15,2013-05-08 20:43:00,
2013-05-08 16:44:00,61.4,57.5,30.02,SE,140,0.0,5.0,87,0.00,,,0.15,Wunderground v.1.15,2013-05-08 20:44:00,
2013-05-08 16:45:00,61.4,57.5,30.02,SE,140,0.0,5.0,87,0.00,,,0.15,Wunderground v.1.15,2013-05-08 20:45:00,
2013-05-08 16:46:00,61.4,57.8,30.02,SE,140,0.0,5.0,88,0.00,,,0.15,Wunderground v.1.15,2013-05-08 20:46:00,
2013-05-08 16:48:00,61.4,57.5,30.02,WNW,282,0.0,5.0,87,0.00,,,0.15,Wunderground v.1.15,2013-05-08 20:48:00,
2013-05-08 16:49:00,61.4,57.5,30.02,WNW,282,0.0,5.0,87,0.00,,,0.15,Wunderground v.1.15,2013-05-08 20:49:00,
2013-05-08 16:50:00,61.5,57.9,30.02,ENE,65,3.0,4.0,88,0.00,,,0.15,Wunderground v.1.15,2013-05-08 20:50:00,
2013-05-08 16:51:00,61.5,57.6,30.02,ENE,67,0.0,4.0,87,0.00,,,0.15,Wunderground v.1.15,2013-05-08 20:51:00,
2013-05-08 16:54:00,61.6,58.0,30.02,East,89,0.0,4.0,88,0.00,,,0.15,Wunderground v.1.15,2013-05-08 20:54:00,
2013-05-08 16:56:00,61.6,57.7,30.02,SSE,165,0.0,5.0,87,0.00,,,0.15,Wunderground v.1.15,2013-05-08 20:56:00,
2013-05-08 16:59:00,61.7,57.8,30.02,SSW,198,1.0,8.0,87,0.00,,,0.15,Wunderground v.1.15,2013-05-08 20:59:00,
2013-05-08 17:00:00,61.7,57.8,30.02,NW,320,0.0,8.0,87,0.00,,,0.15,Wunderground v.1.15,2013-05-08 21:00:00,
2013-05-08 17:01:00,61.7,57.8,30.02,NE,55,0.0,1.0,87,0.00,,,0.15,Wunderground v.1.15,2013-05-08 21:01:00,
2013-05-08 17:04:00,61.7,57.8,30.02,ENE,59,2.0,2.0,87,0.00,,,0.15,Wunderground v.1.15,2013-05-08 21:04:00,
2013-05-08 17:05:00,61.8,57.9,30.02,ENE,78,0.0,2.0,87,0.00,,,0.15,Wunderground v.1.15,2013-05-08 21:05:00,
2013-05-08 17:06:00,61.8,57.9,30.02,ENE,78,0.0,2.0,87,0.00,,,0.15,Wunderground v.1.15,2013-05-08 21:06:00,
2013-05-08 17:07:00,61.7,57.8,30.02,ENE,78,0.0,2.0,87,0.00,,,0.15,Wunderground v.1.15,2013-05-08 21:07:00,
2013-05-08 17:09:00,61.7,57.8,30.02,NE,54,5.0,5.0,87,0.00,,,0.15,Wunderground v.1.15,2013-05-08 21:09:00,
2013-05-08 17:10:00,61.6,57.7,30.02,ENE,74,2.0,2.0,87,0.00,,,0.16,Wunderground v.1.15,2013-05-08 21:10:00,
2013-05-08 17:11:00,61.5,57.9,30.02,SE,129,0.0,2.0,88,0.00,,,0.16,Wunderground v.1.15,2013-05-08 21:11:00,
2013-05-08 17:12:00,61.4,57.8,30.02,SE,129,0.0,2.0,88,0.00,,,0.16,Wunderground v.1.15,2013-05-08 21:12:00,
2013-05-08 17:15:00,61.2,57.9,30.02,SE,142,0.0,5.0,89,0.15,,,0.17,Wunderground v.1.15,2013-05-08 21:15:00,
2013-05-08 17:17:00,61.0,57.7,30.02,NW,305,0.0,5.0,89,0.18,,,0.17,Wunderground v.1.15,2013-05-08 21:17:00,
2013-05-08 17:18:00,60.9,57.6,30.02,ENE,70,0.0,5.0,89,0.18,,,0.18,Wunderground v.1.15,2013-05-08 21:18:00,
2013-05-08 17:20:00,60.5,57.9,30.02,SSW,194,0.0,1.0,91,1.05,,,0.20,Wunderground v.1.15,2013-05-08 21:20:00,
2013-05-08 17:21:00,60.4,57.8,30.02,SSW,197,0.0,2.0,91,1.43,,,0.21,Wunderground v.1.15,2013-05-08 21:21:00,
2013-05-08 17:22:00,60.2,57.6,30.02,SSE,165,4.0,6.0,91,1.28,,,0.23,Wunderground v.1.15,2013-05-08 21:22:00,
2013-05-08 17:23:00,60.0,57.7,30.02,SSW,207,3.0,6.0,92,0.37,,,0.24,Wunderground v.1.15,2013-05-08 21:23:00,
2013-05-08 17:25:00,59.7,57.4,30.02,East,94,0.0,6.0,92,0.17,,,0.24,Wunderground v.1.15,2013-05-08 21:25:00,
2013-05-08 17:26:00,59.7,57.7,30.02,South,170,0.0,6.0,93,0.15,,,0.24,Wunderground v.1.15,2013-05-08 21:26:00,
2013-05-08 17:27:00,59.6,57.6,30.02,WNW,284,1.0,6.0,93,0.11,,,0.24,Wunderground v.1.15,2013-05-08 21:27:00,
2013-05-08 17:28:00,59.4,57.4,30.02,SSE,167,0.0,6.0,93,0.10,,,0.25,Wunderground v.1.15,2013-05-08 21:28:00,
2013-05-08 17:30:00,59.2,57.2,30.02,SSE,167,0.0,1.0,93,0.39,,,0.26,Wunderground v.1.15,2013-05-08 21:30:00,
2013-05-08 17:31:00,59.2,57.2,30.02,SSE,167,0.0,1.0,93,0.35,,,0.26,Wunderground v.1.15,2013-05-08 21:31:00,
2013-05-08 17:32:00,59.1,57.4,30.02,NE,47,0.0,4.0,94,0.25,,,0.27,Wunderground v.1.15,2013-05-08 21:32:00,
2013-05-08 17:34:00,59.1,57.4,30.02,NE,47,0.0,4.0,94,0.55,,,0.28,Wunderground v.1.15,2013-05-08 21:34:00,
2013-05-08 17:36:00,59.0,57.3,30.02,SW,223,0.0,4.0,94,0.16,,,0.28,Wunderground v.1.15,2013-05-08 21:36:00,
2013-05-08 17:38:00,58.9,57.5,30.01,East,92,0.0,5.0,95,0.12,,,0.28,Wunderground v.1.15,2013-05-08 21:38:00,
2013-05-08 17:39:00,58.9,57.5,30.01,NW,307,3.0,5.0,95,0.10,,,0.28,Wunderground v.1.15,2013-05-08 21:39:00,
2013-05-08 17:41:00,58.8,57.4,30.01,NNE,15,0.0,2.0,95,0.07,,,0.28,Wunderground v.1.15,2013-05-08 21:41:00,
2013-05-08 17:42:00,58.7,57.3,30.01,NNE,15,0.0,2.0,95,0.07,,,0.28,Wunderground v.1.15,2013-05-08 21:42:00,
2013-05-08 17:43:00,58.7,57.3,30.01,NNW,346,0.0,2.0,95,0.06,,,0.28,Wunderground v.1.15,2013-05-08 21:43:00,
2013-05-08 17:44:00,58.7,57.3,30.01,NNW,346,0.0,2.0,95,0.05,,,0.28,Wunderground v.1.15,2013-05-08 21:44:00,
2013-05-08 17:47:00,58.7,57.3,30.01,NW,305,0.0,4.0,95,0.05,,,0.29,Wunderground v.1.15,2013-05-08 21:47:00,
2013-05-08 17:48:00,58.6,57.5,30.01,SSE,150,4.0,4.0,96,0.05,,,0.29,Wunderground v.1.15,2013-05-08 21:48:00,
2013-05-08 17:50:00,58.6,57.5,30.01,NNW,330,0.0,7.0,96,0.05,,,0.29,Wunderground v.1.15,2013-05-08 21:50:00,
2013-05-08 17:52:00,58.5,57.4,30.01,WNW,298,0.0,1.0,96,0.05,,,0.29,Wunderground v.1.15,2013-05-08 21:52:00,
2013-05-08 17:53:00,58.5,57.4,30.01,West,268,0.0,1.0,96,0.05,,,0.29,Wunderground v.1.15,2013-05-08 21:53:00,
2013-05-08 17:55:00,58.5,57.4,30.01,West,269,1.0,3.0,96,0.05,,,0.29,Wunderground v.1.15,2013-05-08 21:55:00,
2013-05-08 17:58:00,58.4,57.3,30.01,SSE,167,0.0,5.0,96,0.05,,,0.29,Wunderground v.1.15,2013-05-08 21:58:00,
2013-05-08 18:00:00,58.4,57.3,30.01,ENE,69,5.0,5.0,96,0.04,,,0.29,Wunderground v.1.15,2013-05-08 22:00:00,
2013-05-08 18:03:00,58.2,57.1,30.01,ESE,106,0.0,5.0,96,0.00,,,0.29,Wunderground v.1.15,2013-05-08 22:03:00,
2013-05-08 18:04:00,58.2,57.1,30.01,North,355,4.0,5.0,96,0.00,,,0.29,Wunderground v.1.15,2013-05-08 22:04:00,
2013-05-08 18:05:00,58.2,57.1,30.01,NW,306,0.0,5.0,96,0.00,,,0.29,Wunderground v.1.15,2013-05-08 22:05:00,
2013-05-08 18:09:00,58.2,57.4,30.01,West,267,0.0,5.0,97,0.00,,,0.29,Wunderground v.1.15,2013-05-08 22:09:00,
2013-05-08 18:11:00,58.2,57.4,30.01,SSE,156,0.0,5.0,97,0.00,,,0.29,Wunderground v.1.15,2013-05-08 22:11:00,
2013-05-08 18:14:00,58.1,57.3,30.01,SE,130,0.0,5.0,97,0.00,,,0.30,Wunderground v.1.15,2013-05-08 22:14:00,
2013-05-08 18:16:00,58.1,57.3,30.00,North,355,2.0,5.0,97,0.00,,,0.30,Wunderground v.1.15,2013-05-08 22:16:00,
2013-05-08 18:19:00,58.0,57.2,30.01,SE,130,1.0,6.0,97,0.00,,,0.30,Wunderground v.1.15,2013-05-08 22:19:00,
2013-05-08 18:20:00,58.0,57.2,30.00,SE,130,0.0,6.0,97,0.00,,,0.30,Wunderground v.1.15,2013-05-08 22:20:00,
2013-05-08 18:21:00,58.0,57.2,30.01,WNW,296,0.0,4.0,97,0.00,,,0.30,Wunderground v.1.15,2013-05-08 22:21:00,
2013-05-08 18:25:00,58.0,57.2,30.00,South,178,4.0,6.0,97,0.00,,,0.30,Wunderground v.1.15,2013-05-08 22:25:00,
2013-05-08 18:27:00,57.9,57.1,30.00,East,82,0.0,7.0,97,0.00,,,0.30,Wunderground v.1.15,2013-05-08 22:27:00,
2013-05-08 18:30:00,57.9,57.1,30.00,ESE,121,0.0,8.0,97,0.04,,,0.31,Wunderground v.1.15,2013-05-08 22:30:00,
2013-05-08 18:32:00,57.9,57.1,30.00,ESE,115,5.0,5.0,97,0.04,,,0.31,Wunderground v.1.15,2013-05-08 22:32:00,
2013-05-08 18:35:00,57.9,57.1,30.00,East,101,0.0,5.0,97,0.04,,,0.31,Wunderground v.1.15,2013-05-08 22:35:00,
2013-05-08 18:36:00,58.0,57.2,30.00,East,98,0.0,5.0,97,0.04,,,0.31,Wunderground v.1.15,2013-05-08 22:36:00,
2013-05-08 18:37:00,57.9,57.1,30.00,SE,134,1.0,5.0,97,0.04,,,0.31,Wunderground v.1.15,2013-05-08 22:37:00,
2013-05-08 18:40:00,57.9,57.1,30.00,East,80,0.0,4.0,97,0.04,,,0.31,Wunderground v.1.15,2013-05-08 22:40:00,
2013-05-08 18:41:00,58.0,57.2,30.00,East,80,0.0,4.0,97,0.04,,,0.31,Wunderground v.1.15,2013-05-08 22:41:00,
2013-05-08 18:42:00,57.9,57.1,30.00,SE,137,0.0,4.0,97,0.04,,,0.32,Wunderground v.1.15,2013-05-08 22:42:00,
2013-05-08 18:45:00,57.9,57.1,30.00,NW,313,0.0,4.0,97,0.04,,,0.32,Wunderground v.1.15,2013-05-08 22:45:00,
2013-05-08 18:46:00,57.9,57.1,30.00,NW,313,0.0,4.0,97,0.04,,,0.32,Wunderground v.1.15,2013-05-08 22:46:00,
2013-05-08 18:47:00,58.0,57.2,30.00,NNE,13,1.0,4.0,97,0.04,,,0.32,Wunderground v.1.15,2013-05-08 22:47:00,
2013-05-08 18:49:00,58.0,57.2,30.00,ENE,71,1.0,5.0,97,0.04,,,0.32,Wunderground v.1.15,2013-05-08 22:49:00,
2013-05-08 18:51:00,58.0,57.2,30.00,ESE,114,0.0,1.0,97,0.04,,,0.32,Wunderground v.1.15,2013-05-08 22:51:00,
2013-05-08 18:52:00,58.0,57.2,30.00,East,91,4.0,4.0,97,0.04,,,0.32,Wunderground v.1.15,2013-05-08 22:52:00,
2013-05-08 18:54:00,58.0,57.2,30.00,South,175,0.0,6.0,97,0.04,,,0.32,Wunderground v.1.15,2013-05-08 22:54:00,
2013-05-08 18:56:00,58.0,57.2,30.00,NW,313,2.0,6.0,97,0.04,,,0.32,Wunderground v.1.15,2013-05-08 22:56:00,
2013-05-08 18:57:00,58.0,57.2,30.00,SE,133,8.0,8.0,97,0.04,,,0.32,Wunderground v.1.15,2013-05-08 22:57:00,
2013-05-08 18:59:00,58.0,57.2,30.00,South,190,5.0,8.0,97,0.04,,,0.32,Wunderground v.1.15,2013-05-08 22:59:00,
2013-05-08 19:01:00,58.0,57.2,30.00,SE,138,0.0,2.0,97,0.00,,,0.32,Wunderground v.1.15,2013-05-08 23:01:00,
2013-05-08 19:02:00,58.0,57.2,30.00,NE,46,2.0,5.0,97,0.00,,,0.32,Wunderground v.1.15,2013-05-08 23:02:00,
2013-05-08 19:03:00,58.0,57.2,30.00,NE,46,0.0,5.0,97,0.00,,,0.32,Wunderground v.1.15,2013-05-08 23:03:00,
2013-05-08 19:04:00,58.0,57.2,30.00,NE,46,0.0,5.0,97,0.00,,,0.32,Wunderground v.1.15,2013-05-08 23:04:00,
2013-05-08 19:06:00,58.0,57.2,30.00,West,281,0.0,5.0,97,0.00,,,0.32,Wunderground v.1.15,2013-05-08 23:06:00,
2013-05-08 19:08:00,58.0,57.2,30.00,East,88,0.0,5.0,97,0.00,,,0.32,Wunderground v.1.15,2013-05-08 23:08:00,
2013-05-08 19:09:00,58.0,57.2,30.00,East,100,5.0,5.0,97,0.00,,,0.32,Wunderground v.1.15,2013-05-08 23:09:00,
2013-05-08 19:12:00,58.0,57.2,30.00,SW,235,4.0,5.0,97,0.00,,,0.32,Wunderground v.1.15,2013-05-08 23:12:00,
2013-05-08 19:13:00,58.0,57.2,30.00,SSW,209,0.0,6.0,97,0.00,,,0.32,Wunderground v.1.15,2013-05-08 23:13:00,
2013-05-08 19:14:00,58.0,57.2,30.00,SSW,209,0.0,6.0,97,0.00,,,0.32,Wunderground v.1.15,2013-05-08 23:14:00,
2013-05-08 19:18:00,57.9,57.1,30.00,NW,318,1.0,6.0,97,0.00,,,0.33,Wunderground v.1.15,2013-05-08 23:18:00,
2013-05-08 19:19:00,57.9,57.1,30.00,West,261,0.0,6.0,97,0.49,,,0.34,Wunderground v.1.15,2013-05-08 23:19:00,
2013-05-08 19:23:00,57.9,57.1,30.00,South,182,0.0,4.0,97,0.58,,,0.36,Wunderground v.1.15,2013-05-08 23:23:00,
2013-05-08 19:25:00,57.9,57.1,30.00,West,280,4.0,5.0,97,0.32,,,0.37,Wunderground v.1.15,2013-05-08 23:25:00,
2013-05-08 19:28:00,57.8,57.0,30.00,NNE,26,5.0,8.0,97,0.79,,,0.42,Wunderground v.1.15,2013-05-08 23:28:00,
2013-05-08 19:30:00,57.7,56.9,30.00,NW,312,0.0,8.0,97,0.26,,,0.42,Wunderground v.1.15,2013-05-08 23:30:00,
2013-05-08 19:31:00,57.7,56.9,30.00,SSW,192,2.0,2.0,97,0.21,,,0.43,Wunderground v.1.15,2013-05-08 23:31:00,
2013-05-08 19:33:00,57.7,56.9,30.00,SSW,192,0.0,2.0,97,0.42,,,0.44,Wunderground v.1.15,2013-05-08 23:33:00,
2013-05-08 19:34:00,57.6,57.0,30.00,SSW,192,0.0,2.0,98,0.24,,,0.44,Wunderground v.1.15,2013-05-08 23:34:00,
2013-05-08 19:35:00,57.7,57.1,30.00,WSW,257,5.0,6.0,98,0.19,,,0.44,Wunderground v.1.15,2013-05-08 23:35:00,
2013-05-08 19:36:00,57.6,57.0,30.00,NNW,336,0.0,6.0,98,0.15,,,0.44,Wunderground v.1.15,2013-05-08 23:36:00,
2013-05-08 19:38:00,57.6,57.0,30.00,SSW,200,3.0,6.0,98,0.15,,,0.45,Wunderground v.1.15,2013-05-08 23:38:00,
2013-05-08 19:39:00,57.6,56.8,30.00,South,175,0.0,6.0,97,0.15,,,0.45,Wunderground v.1.15,2013-05-08 23:39:00,
2013-05-08 19:40:00,57.6,56.8,30.00,SSW,198,0.0,6.0,97,0.15,,,0.45,Wunderground v.1.15,2013-05-08 23:40:00,
2013-05-08 19:41:00,57.6,56.8,30.00,West,271,0.0,5.0,97,0.15,,,0.46,Wunderground v.1.15,2013-05-08 23:41:00,
2013-05-08 19:44:00,57.5,56.7,30.00,WSW,248,5.0,8.0,97,0.35,,,0.48,Wunderground v.1.15,2013-05-08 23:44:00,
2013-05-08 19:45:00,57.5,56.7,30.00,SSE,162,0.0,8.0,97,0.35,,,0.48,Wunderground v.1.15,2013-05-08 23:45:00,
2013-05-08 19:46:00,57.5,56.7,30.00,WSW,252,2.0,8.0,97,0.32,,,0.48,Wunderground v.1.15,2013-05-08 23:46:00,
2013-05-08 19:49:00,57.5,56.7,30.00,NNE,26,0.0,8.0,97,0.39,,,0.50,Wunderground v.1.15,2013-05-08 23:49:00,
2013-05-08 19:50:00,57.5,56.7,30.00,NNE,32,0.0,2.0,97,0.36,,,0.50,Wunderground v.1.15,2013-05-08 23:50:00,
2013-05-08 19:51:00,57.5,56.7,30.00,East,86,0.0,5.0,97,0.20,,,0.50,Wunderground v.1.15,2013-05-08 23:51:00,
2013-05-08 19:54:00,57.5,56.9,30.00,SSW,198,0.0,5.0,98,0.13,,,0.51,Wunderground v.1.15,2013-05-08 23:54:00,
2013-05-08 19:55:00,57.5,56.9,30.00,SSW,198,1.0,5.0,98,0.13,,,0.51,Wunderground v.1.15,2013-05-08 23:55:00,
2013-05-08 19:56:00,57.5,56.9,30.00,East,96,0.0,5.0,98,0.13,,,0.51,Wunderground v.1.15,2013-05-08 23:56:00,
2013-05-08 19:59:00,57.5,56.9,30.00,WNW,286,0.0,5.0,98,0.10,,,0.51,Wunderground v.1.15,2013-05-08 23:59:00,
2013-05-08 20:00:00,57.5,56.9,30.00,SSW,207,6.0,6.0,98,0.08,,,0.51,Wunderground v.1.15,2013-05-09 00:00:00,
2013-05-08 20:01:00,57.5,56.9,30.00,South,191,1.0,8.0,98,0.08,,,0.51,Wunderground v.1.15,2013-05-09 00:01:00,
2013-05-08 20:04:00,57.4,56.8,30.00,East,101,0.0,10.0,98,0.05,,,0.51,Wunderground v.1.15,2013-05-09 00:04:00,
2013-05-08 20:05:00,57.5,56.9,30.00,ENE,61,2.0,10.0,98,0.05,,,0.51,Wunderground v.1.15,2013-05-09 00:05:00,
2013-05-08 20:06:00,57.5,56.9,30.00,ESE,117,5.0,10.0,98,0.05,,,0.51,Wunderground v.1.15,2013-05-09 00:06:00,
2013-05-08 20:07:00,57.5,56.9,30.00,NE,42,0.0,10.0,98,0.04,,,0.51,Wunderground v.1.15,2013-05-09 00:07:00,
2013-05-08 20:09:00,57.5,56.9,30.00,WNW,286,3.0,10.0,98,0.04,,,0.52,Wunderground v.1.15,2013-05-09 00:09:00,
2013-05-08 20:11:00,57.5,56.9,30.00,SSW,198,8.0,8.0,98,0.04,,,0.52,Wunderground v.1.15,2013-05-09 00:11:00,
2013-05-08 20:12:00,57.5,56.9,30.00,South,188,5.0,8.0,98,0.04,,,0.52,Wunderground v.1.15,2013-05-09 00:12:00,
2013-05-08 20:14:00,57.4,56.8,30.00,SW,223,0.0,8.0,98,0.04,,,0.52,Wunderground v.1.15,2013-05-09 00:14:00,
2013-05-08 20:16:00,57.4,56.8,30.00,NNE,17,0.0,8.0,98,0.04,,,0.52,Wunderground v.1.15,2013-05-09 00:16:00,
2013-05-08 20:17:00,57.4,56.8,30.00,ENE,73,4.0,8.0,98,0.04,,,0.52,Wunderground v.1.15,2013-05-09 00:17:00,
2013-05-08 20:19:00,57.4,56.8,30.00,SW,216,0.0,8.0,98,0.04,,,0.52,Wunderground v.1.15,2013-05-09 00:19:00,
2013-05-08 20:21:00,57.4,56.8,30.00,NW,306,4.0,7.0,98,0.04,,,0.52,Wunderground v.1.15,2013-05-09 00:21:00,
2013-05-08 20:22:00,57.5,56.9,30.00,WNW,290,1.0,7.0,98,0.04,,,0.52,Wunderground v.1.15,2013-05-09 00:22:00,
2013-05-08 20:23:00,57.4,56.8,30.00,West,267,0.0,7.0,98,0.04,,,0.52,Wunderground v.1.15,2013-05-09 00:23:00,
2013-05-08 20:25:00,57.4,56.8,30.00,SSE,155,4.0,7.0,98,0.04,,,0.52,Wunderground v.1.15,2013-05-09 00:25:00,
2013-05-08 20:27:00,57.4,56.8,30.00,NNE,12,0.0,7.0,98,0.00,,,0.52,Wunderground v.1.15,2013-05-09 00:27:00,
2013-05-08 20:28:00,57.4,56.8,30.00,NW,306,1.0,7.0,98,0.00,,,0.52,Wunderground v.1.15,2013-05-09 00:28:00,
2013-05-08 20:29:00,57.4,56.8,30.00,NW,306,0.0,7.0,98,0.00,,,0.52,Wunderground v.1.15,2013-05-09 00:29:00,
2013-05-08 20:30:00,57.4,56.8,30.00,WNW,284,0.0,7.0,98,0.00,,,0.52,Wunderground v.1.15,2013-05-09 00:30:00,
2013-05-08 20:32:00,57.4,56.8,30.00,SW,222,3.0,4.0,98,0.00,,,0.52,Wunderground v.1.15,2013-05-09 00:32:00,
2013-05-08 20:33:00,57.4,56.8,30.00,SSW,194,1.0,4.0,98,0.00,,,0.52,Wunderground v.1.15,2013-05-09 00:33:00,
2013-05-08 20:34:00,57.4,56.8,30.00,West,259,8.0,8.0,98,0.00,,,0.52,Wunderground v.1.15,2013-05-09 00:34:00,
2013-05-08 20:35:00,57.4,56.8,30.00,SE,132,6.0,8.0,98,0.00,,,0.52,Wunderground v.1.15,2013-05-09 00:35:00,
2013-05-08 20:37:00,57.3,56.7,30.00,SW,229,1.0,8.0,98,0.00,,,0.52,Wunderground v.1.15,2013-05-09 00:37:00,
2013-05-08 20:39:00,57.4,56.8,30.00,NE,49,0.0,8.0,98,0.00,,,0.52,Wunderground v.1.15,2013-05-09 00:39:00,
2013-05-08 20:40:00,57.4,56.8,30.00,NNE,16,0.0,8.0,98,0.00,,,0.52,Wunderground v.1.15,2013-05-09 00:40:00,
2013-05-08 20:42:00,57.3,56.7,30.00,SSE,152,1.0,6.0,98,0.00,,,0.53,Wunderground v.1.15,2013-05-09 00:42:00,
2013-05-08 20:44:00,57.4,56.8,30.00,South,176,1.0,6.0,98,0.00,,,0.53,Wunderground v.1.15,2013-05-09 00:44:00,
2013-05-08 20:45:00,57.4,56.8,30.00,South,180,0.0,6.0,98,0.00,,,0.53,Wunderground v.1.15,2013-05-09 00:45:00,
2013-05-08 20:48:00,57.4,56.8,30.00,WSW,246,0.0,6.0,98,0.00,,,0.53,Wunderground v.1.15,2013-05-09 00:48:00,
2013-05-08 20:49:00,57.4,56.8,30.00,South,184,0.0,6.0,98,0.07,,,0.54,Wunderground v.1.15,2013-05-09 00:49:00,
2013-05-08 20:50:00,57.4,56.8,30.00,East,88,0.0,6.0,98,0.07,,,0.54,Wunderground v.1.15,2013-05-09 00:50:00,
2013-05-08 20:53:00,57.4,56.8,30.00,East,96,0.0,4.0,98,0.07,,,0.54,Wunderground v.1.15,2013-05-09 00:53:00,
2013-05-08 20:54:00,57.3,56.7,30.00,East,96,0.0,4.0,98,0.07,,,0.54,Wunderground v.1.15,2013-05-09 00:54:00,
2013-05-08 20:55:00,57.3,56.7,30.00,NE,46,0.0,4.0,98,0.11,,,0.55,Wunderground v.1.15,2013-05-09 00:55:00,
2013-05-08 20:56:00,57.4,56.8,30.00,ESE,109,0.0,4.0,98,0.11,,,0.55,Wunderground v.1.15,2013-05-09 00:56:00,
2013-05-08 20:58:00,57.3,56.7,30.00,ESE,103,0.0,4.0,98,0.20,,,0.56,Wunderground v.1.15,2013-05-09 00:58:00,
2013-05-08 20:59:00,57.4,56.8,30.00,East,88,3.0,4.0,98,0.20,,,0.56,Wunderground v.1.15,2013-05-09 00:59:00,
2013-05-08 21:01:00,57.3,56.7,30.00,SW,226,0.0,1.0,98,0.15,,,0.56,Wunderground v.1.15,2013-05-09 01:01:00,
2013-05-08 21:03:00,57.4,56.8,30.00,NE,42,0.0,1.0,98,0.09,,,0.56,Wunderground v.1.15,2013-05-09 01:03:00,
2013-05-08 21:04:00,57.4,56.8,30.00,SE,142,5.0,5.0,98,0.08,,,0.56,Wunderground v.1.15,2013-05-09 01:04:00,
2013-05-08 21:06:00,57.4,56.8,30.00,SSW,213,0.0,5.0,98,0.07,,,0.56,Wunderground v.1.15,2013-05-09 01:06:00,
2013-05-08 21:07:00,57.3,56.7,30.00,SSW,213,0.0,5.0,98,0.06,,,0.56,Wunderground v.1.15,2013-05-09 01:07:00,
2013-05-08 21:09:00,57.3,56.7,30.00,SSE,156,0.0,5.0,98,0.05,,,0.56,Wunderground v.1.15,2013-05-09 01:09:00,
2013-05-08 21:10:00,57.3,56.7,30.00,SSE,156,0.0,5.0,98,0.05,,,0.56,Wunderground v.1.15,2013-05-09 01:10:00,
2013-05-08 21:11:00,57.3,56.7,30.00,SSE,156,0.0,0.0,98,0.04,,,0.56,Wunderground v.1.15,2013-05-09 01:11:00,
2013-05-08 21:12:00,57.4,56.8,30.00,SSE,163,0.0,1.0,98,0.04,,,0.56,Wunderground v.1.15,2013-05-09 01:12:00,
2013-05-08 21:14:00,57.4,56.8,30.00,ESE,103,0.0,2.0,98,0.00,,,0.56,Wunderground v.1.15,2013-05-09 01:14:00,
2013-05-08 21:15:00,57.4,56.8,30.00,ESE,103,0.0,2.0,98,0.00,,,0.56,Wunderground v.1.15,2013-05-09 01:15:00,
2013-05-08 21:16:00,57.4,56.8,30.00,ESE,103,0.0,2.0,98,0.00,,,0.56,Wunderground v.1.15,2013-05-09 01:16:00,
2013-05-08 21:17:00,57.4,56.8,30.00,ESE,111,0.0,3.0,98,0.00,,,0.56,Wunderground v.1.15,2013-05-09 01:17:00,
2013-05-08 21:19:00,57.4,56.8,30.00,ESE,111,0.0,3.0,98,0.00,,,0.56,Wunderground v.1.15,2013-05-09 01:19:00,
2013-05-08 21:20:00,57.4,56.8,30.00,East,91,5.0,7.0,98,0.00,,,0.56,Wunderground v.1.15,2013-05-09 01:20:00,
2013-05-08 21:21:00,57.4,56.8,30.00,WNW,296,0.0,7.0,98,0.00,,,0.56,Wunderground v.1.15,2013-05-09 01:21:00,
2013-05-08 21:22:00,57.3,56.7,30.00,West,267,0.0,7.0,98,0.00,,,0.56,Wunderground v.1.15,2013-05-09 01:22:00,
2013-05-08 21:24:00,57.3,56.7,30.01,SSW,213,3.0,7.0,98,0.00,,,0.56,Wunderground v.1.15,2013-05-09 01:24:00,
2013-05-08 21:25:00,57.3,56.7,30.00,North,9,0.0,7.0,98,0.00,,,0.56,Wunderground v.1.15,2013-05-09 01:25:00,
2013-05-08 21:26:00,57.3,56.7,30.01,SSW,197,3.0,7.0,98,0.00,,,0.56,Wunderground v.1.15,2013-05-09 01:26:00,
2013-05-08 21:28:00,57.3,56.7,30.00,North,355,1.0,7.0,98,0.00,,,0.56,Wunderground v.1.15,2013-05-09 01:28:00,
2013-05-08 21:29:00,57.3,56.7,30.01,South,184,0.0,7.0,98,0.00,,,0.56,Wunderground v.1.15,2013-05-09 01:29:00,
2013-05-08 21:30:00,57.3,56.7,30.00,NE,38,0.0,4.0,98,0.00,,,0.56,Wunderground v.1.15,2013-05-09 01:30:00,
2013-05-08 21:31:00,57.3,56.7,30.01,WNW,288,0.0,4.0,98,0.00,,,0.56,Wunderground v.1.15,2013-05-09 01:31:00,
2013-05-08 21:33:00,57.3,56.7,30.00,ENE,61,0.0,4.0,98,0.00,,,0.56,Wunderground v.1.15,2013-05-09 01:33:00,
2013-05-08 21:34:00,57.3,56.7,30.00,ENE,70,1.0,4.0,98,0.00,,,0.56,Wunderground v.1.15,2013-05-09 01:34:00,
2013-05-08 21:35:00,57.3,56.7,30.00,NE,36,2.0,4.0,98,0.00,,,0.56,Wunderground v.1.15,2013-05-09 01:35:00,
2013-05-08 21:36:00,57.3,56.7,30.00,East,85,1.0,4.0,98,0.00,,,0.56,Wunderground v.1.15,2013-05-09 01:36:00,
2013-05-08 21:38:00,57.3,56.7,30.01,East,81,0.0,4.0,98,0.00,,,0.56,Wunderground v.1.15,2013-05-09 01:38:00,
2013-05-08 21:40:00,57.3,56.7,30.01,SW,224,0.0,4.0,98,0.00,,,0.56,Wunderground v.1.15,2013-05-09 01:40:00,
2013-05-08 21:41:00,57.2,56.6,30.01,South,188,0.0,1.0,98,0.00,,,0.56,Wunderground v.1.15,2013-05-09 01:41:00,
2013-05-08 21:42:00,57.3,56.7,30.01,ESE,120,0.0,2.0,98,0.00,,,0.56,Wunderground v.1.15,2013-05-09 01:42:00,
2013-05-08 21:44:00,57.3,56.7,30.01,East,90,0.0,4.0,98,0.00,,,0.57,Wunderground v.1.15,2013-05-09 01:44:00,
2013-05-08 21:45:00,57.2,56.6,30.01,SSW,202,4.0,8.0,98,0.00,,,0.57,Wunderground v.1.15,2013-05-09 01:45:00,
2013-05-08 21:46:00,57.2,56.6,30.01,SSW,199,0.0,8.0,98,0.00,,,0.57,Wunderground v.1.15,2013-05-09 01:46:00,
2013-05-08 21:47:00,57.2,56.6,30.01,SSW,199,0.0,8.0,98,0.00,,,0.57,Wunderground v.1.15,2013-05-09 01:47:00,
2013-05-08 21:49:00,57.2,56.6,30.01,SSW,199,0.0,8.0,98,0.00,,,0.57,Wunderground v.1.15,2013-05-09 01:49:00,
2013-05-08 21:50:00,57.2,56.6,30.01,NE,34,1.0,1.0,98,0.00,,,0.57,Wunderground v.1.15,2013-05-09 01:50:00,
2013-05-08 21:52:00,57.2,56.6,30.01,ENE,76,0.0,4.0,98,0.00,,,0.57,Wunderground v.1.15,2013-05-09 01:52:00,
2013-05-08 21:54:00,57.2,56.6,30.01,SSW,206,0.0,5.0,98,0.00,,,0.57,Wunderground v.1.15,2013-05-09 01:54:00,
2013-05-08 21:56:00,57.2,56.6,30.01,SSW,198,0.0,5.0,98,0.00,,,0.57,Wunderground v.1.15,2013-05-09 01:56:00,
2013-05-08 21:57:00,57.2,56.6,30.00,SW,229,4.0,5.0,98,0.00,,,0.57,Wunderground v.1.15,2013-05-09 01:57:00,
2013-05-08 22:00:00,57.2,56.6,30.00,ESE,122,0.0,5.0,98,0.00,,,0.57,Wunderground v.1.15,2013-05-09 02:00:00,
2013-05-08 22:01:00,57.2,56.6,30.00,SSW,205,0.0,1.0,98,0.00,,,0.57,Wunderground v.1.15,2013-05-09 02:01:00,
2013-05-08 22:02:00,57.2,56.6,30.00,ENE,71,3.0,3.0,98,0.00,,,0.57,Wunderground v.1.15,2013-05-09 02:02:00,
2013-05-08 22:03:00,57.2,56.6,30.01,East,99,0.0,5.0,98,0.00,,,0.57,Wunderground v.1.15,2013-05-09 02:03:00,
2013-05-08 22:04:00,57.3,56.7,30.00,SSE,158,0.0,5.0,98,0.00,,,0.57,Wunderground v.1.15,2013-05-09 02:04:00,
2013-05-08 22:05:00,57.2,56.6,30.00,East,101,0.0,5.0,98,0.00,,,0.57,Wunderground v.1.15,2013-05-09 02:05:00,
2013-05-08 22:06:00,57.2,56.6,30.00,East,101,0.0,5.0,98,0.00,,,0.57,Wunderground v.1.15,2013-05-09 02:06:00,
2013-05-08 22:08:00,57.2,56.6,30.01,East,101,0.0,5.0,98,0.00,,,0.57,Wunderground v.1.15,2013-05-09 02:08:00,
2013-05-08 22:09:00,57.2,56.6,30.00,ESE,115,2.0,5.0,98,0.00,,,0.57,Wunderground v.1.15,2013-05-09 02:09:00,
2013-05-08 22:10:00,57.2,56.6,30.00,ESE,115,0.0,1.0,98,0.00,,,0.57,Wunderground v.1.15,2013-05-09 02:10:00,
2013-05-08 22:11:00,57.2,56.6,30.00,SE,138,0.0,1.0,98,0.00,,,0.57,Wunderground v.1.15,2013-05-09 02:11:00,
2013-05-08 22:13:00,57.2,56.6,30.00,East,88,0.0,4.0,98,0.00,,,0.57,Wunderground v.1.15,2013-05-09 02:13:00,
2013-05-08 22:15:00,57.3,56.7,30.00,ESE,119,5.0,6.0,98,0.00,,,0.57,Wunderground v.1.15,2013-05-09 02:15:00,
2013-05-08 22:16:00,57.3,56.7,30.00,West,280,0.0,6.0,98,0.00,,,0.57,Wunderground v.1.15,2013-05-09 02:16:00,
2013-05-08 22:18:00,57.3,56.7,30.00,South,186,0.0,6.0,98,0.00,,,0.57,Wunderground v.1.15,2013-05-09 02:18:00,
2013-05-08 22:19:00,57.3,56.7,30.00,South,186,0.0,6.0,98,0.00,,,0.57,Wunderground v.1.15,2013-05-09 02:19:00,
2013-05-08 22:20:00,57.3,56.7,30.00,WSW,238,0.0,6.0,98,0.00,,,0.57,Wunderground v.1.15,2013-05-09 02:20:00,
2013-05-08 22:21:00,57.3,56.7,30.00,North,350,1.0,1.0,98,0.00,,,0.57,Wunderground v.1.15,2013-05-09 02:21:00,
2013-05-08 22:23:00,57.3,56.7,30.00,East,90,0.0,8.0,98,0.00,,,0.57,Wunderground v.1.15,2013-05-09 02:23:00,
2013-05-08 22:25:00,57.3,56.7,30.00,East,95,0.0,8.0,98,0.00,,,0.57,Wunderground v.1.15,2013-05-09 02:25:00,
2013-05-08 22:26:00,57.3,56.7,30.00,East,93,0.0,8.0,98,0.00,,,0.57,Wunderground v.1.15,2013-05-09 02:26:00,
2013-05-08 22:27:00,57.3,56.7,30.00,South,188,0.0,8.0,98,0.00,,,0.57,Wunderground v.1.15,2013-05-09 02:27:00,
2013-05-08 22:29:00,57.3,56.7,30.00,South,190,0.0,8.0,98,0.00,,,0.57,Wunderground v.1.15,2013-05-09 02:29:00,
2013-05-08 22:30:00,57.3,56.7,30.00,South,182,0.0,1.0,98,0.00,,,0.57,Wunderground v.1.15,2013-05-09 02:30:00,
2013-05-08 22:31:00,57.3,56.7,30.00,SE,140,2.0,6.0,98,0.00,,,0.57,Wunderground v.1.15,2013-05-09 02:31:00,
2013-05-08 22:32:00,57.3,56.7,30.00,South,182,0.0,6.0,98,0.00,,,0.57,Wunderground v.1.15,2013-05-09 02:32:00,
2013-05-08 22:34:00,57.3,56.7,30.00,ENE,77,2.0,6.0,98,0.00,,,0.57,Wunderground v.1.15,2013-05-09 02:34:00,
2013-05-08 22:35:00,57.3,56.7,30.00,SSE,151,1.0,6.0,98,0.00,,,0.57,Wunderground v.1.15,2013-05-09 02:35:00,
2013-05-08 22:36:00,57.3,56.7,30.00,East,90,2.0,6.0,98,0.00,,,0.57,Wunderground v.1.15,2013-05-09 02:36:00,
2013-05-08 22:37:00,57.3,56.7,30.00,East,101,0.0,6.0,98,0.00,,,0.57,Wunderground v.1.15,2013-05-09 02:37:00,
2013-05-08 22:39:00,57.3,56.7,30.00,South,173,0.0,6.0,98,0.00,,,0.57,Wunderground v.1.15,2013-05-09 02:39:00,
2013-05-08 22:40:00,57.3,56.7,30.00,South,184,0.0,1.0,98,0.00,,,0.57,Wunderground v.1.15,2013-05-09 02:40:00,
2013-05-08 22:41:00,57.3,56.7,30.00,NNE,31,3.0,3.0,98,0.00,,,0.57,Wunderground v.1.15,2013-05-09 02:41:00,
2013-05-08 22:42:00,57.3,56.7,30.00,East,93,7.0,7.0,98,0.00,,,0.57,Wunderground v.1.15,2013-05-09 02:42:00,
2013-05-08 22:44:00,57.3,56.7,30.00,SSW,207,0.0,7.0,98,0.00,,,0.57,Wunderground v.1.15,2013-05-09 02:44:00,
2013-05-08 22:45:00,57.3,56.7,30.00,ESE,118,0.0,7.0,98,0.00,,,0.57,Wunderground v.1.15,2013-05-09 02:45:00,
2013-05-08 22:46:00,57.3,56.7,30.00,ESE,118,0.0,7.0,98,0.00,,,0.57,Wunderground v.1.15,2013-05-09 02:46:00,
2013-05-08 22:47:00,57.3,56.7,30.00,East,81,2.0,7.0,98,0.00,,,0.57,Wunderground v.1.15,2013-05-09 02:47:00,
2013-05-08 22:48:00,57.3,56.7,29.99,ENE,57,1.0,7.0,98,0.00,,,0.57,Wunderground v.1.15,2013-05-09 02:48:00,
2013-05-08 22:49:00,57.3,56.7,29.99,ENE,57,0.0,7.0,98,0.00,,,0.57,Wunderground v.1.15,2013-05-09 02:49:00,
2013-05-08 22:50:00,57.3,56.7,29.99,ENE,57,0.0,1.0,98,0.00,,,0.57,Wunderground v.1.15,2013-05-09 02:50:00,
2013-05-08 22:51:00,57.3,56.7,29.99,ENE,57,0.0,1.0,98,0.00,,,0.57,Wunderground v.1.15,2013-05-09 02:51:00,
2013-05-08 22:53:00,57.3,56.7,29.99,ENE,57,0.0,1.0,98,0.00,,,0.57,Wunderground v.1.15,2013-05-09 02:53:00,
2013-05-08 22:55:00,57.3,56.7,29.99,East,89,3.0,3.0,98,0.00,,,0.57,Wunderground v.1.15,2013-05-09 02:55:00,
2013-05-08 22:56:00,57.3,56.7,29.99,SSE,148,0.0,3.0,98,0.00,,,0.57,Wunderground v.1.15,2013-05-09 02:56:00,
2013-05-08 22:57:00,57.3,56.7,29.99,SSE,148,0.0,3.0,98,0.00,,,0.57,Wunderground v.1.15,2013-05-09 02:57:00,
2013-05-08 22:58:00,57.2,56.6,29.99,SSE,148,0.0,3.0,98,0.00,,,0.57,Wunderground v.1.15,2013-05-09 02:58:00,
2013-05-08 22:59:00,57.2,56.6,29.99,East,80,1.0,3.0,98,0.00,,,0.57,Wunderground v.1.15,2013-05-09 02:59:00,
2013-05-08 23:00:00,57.2,56.6,29.99,West,263,0.0,3.0,98,0.00,,,0.57,Wunderground v.1.15,2013-05-09 03:00:00,
2013-05-08 23:01:00,57.2,56.6,29.99,ENE,71,0.0,3.0,98,0.00,,,0.57,Wunderground v.1.15,2013-05-09 03:01:00,
2013-05-08 23:02:00,57.2,56.6,29.99,SW,223,0.0,4.0,98,0.00,,,0.57,Wunderground v.1.15,2013-05-09 03:02:00,
2013-05-08 23:03:00,57.2,56.6,29.99,South,173,1.0,4.0,98,0.00,,,0.57,Wunderground v.1.15,2013-05-09 03:03:00,
2013-05-08 23:04:00,57.3,56.7,29.99,SSE,164,0.0,4.0,98,0.00,,,0.57,Wunderground v.1.15,2013-05-09 03:04:00,
2013-05-08 23:05:00,57.2,56.6,29.99,SSE,164,0.0,4.0,98,0.00,,,0.57,Wunderground v.1.15,2013-05-09 03:05:00,
2013-05-08 23:06:00,57.2,56.6,29.99,SSE,164,0.0,4.0,98,0.00,,,0.57,Wunderground v.1.15,2013-05-09 03:06:00,
2013-05-08 23:08:00,57.2,56.6,29.99,SSE,164,0.0,4.0,98,0.00,,,0.57,Wunderground v.1.15,2013-05-09 03:08:00,
2013-05-08 23:09:00,57.2,56.6,29.99,SW,215,1.0,4.0,98,0.00,,,0.57,Wunderground v.1.15,2013-05-09 03:09:00,
2013-05-08 23:10:00,57.2,56.6,29.99,SW,215,0.0,4.0,98,0.00,,,0.57,Wunderground v.1.15,2013-05-09 03:10:00,
2013-05-08 23:12:00,57.2,56.6,29.99,South,185,0.0,3.0,98,0.00,,,0.58,Wunderground v.1.15,2013-05-09 03:12:00,
2013-05-08 23:14:00,57.2,56.6,29.99,SSW,192,1.0,3.0,98,0.36,,,0.59,Wunderground v.1.15,2013-05-09 03:14:00,
2013-05-08 23:15:00,57.2,56.6,29.99,SSW,211,0.0,4.0,98,0.38,,,0.60,Wunderground v.1.15,2013-05-09 03:15:00,
2013-05-08 23:18:00,57.2,56.6,29.99,SE,131,1.0,5.0,98,0.21,,,0.61,Wunderground v.1.15,2013-05-09 03:18:00,
2013-05-08 23:19:00,57.2,56.6,29.99,South,184,0.0,5.0,98,0.21,,,0.61,Wunderground v.1.15,2013-05-09 03:19:00,
2013-05-08 23:20:00,57.2,56.6,29.99,SSW,208,1.0,5.0,98,0.21,,,0.61,Wunderground v.1.15,2013-05-09 03:20:00,
2013-05-08 23:23:00,57.2,56.6,29.99,SE,136,0.0,2.0,98,0.11,,,0.61,Wunderground v.1.15,2013-05-09 03:23:00,
2013-05-08 23:24:00,57.2,56.6,29.99,SE,135,1.0,2.0,98,0.09,,,0.61,Wunderground v.1.15,2013-05-09 03:24:00,
2013-05-08 23:25:00,57.2,56.6,29.99,SSE,152,0.0,2.0,98,0.08,,,0.61,Wunderground v.1.15,2013-05-09 03:25:00,
2013-05-08 23:26:00,57.2,56.6,29.99,SSE,152,0.0,2.0,98,0.07,,,0.61,Wunderground v.1.15,2013-05-09 03:26:00,
2013-05-08 23:28:00,57.2,56.6,29.99,ENE,69,0.0,2.0,98,0.06,,,0.61,Wunderground v.1.15,2013-05-09 03:28:00,
2013-05-08 23:29:00,57.2,56.6,29.99,SE,124,0.0,2.0,98,0.05,,,0.61,Wunderground v.1.15,2013-05-09 03:29:00,
2013-05-08 23:30:00,57.2,56.6,29.99,ENE,59,0.0,0.0,98,0.05,,,0.61,Wunderground v.1.15,2013-05-09 03:30:00,
2013-05-08 23:31:00,57.2,56.6,29.99,NNE,22,0.0,0.0,98,0.04,,,0.61,Wunderground v.1.15,2013-05-09 03:31:00,
2013-05-08 23:32:00,57.2,56.6,29.98,ENE,60,1.0,2.0,98,0.04,,,0.61,Wunderground v.1.15,2013-05-09 03:32:00,
2013-05-08 23:33:00,57.3,56.7,29.99,SSW,200,2.0,3.0,98,0.04,,,0.61,Wunderground v.1.15,2013-05-09 03:33:00,
2013-05-08 23:34:00,57.2,56.9,29.99,South,186,0.0,3.0,99,0.04,,,0.61,Wunderground v.1.15,2013-05-09 03:34:00,
2013-05-08 23:35:00,57.3,57.0,29.98,South,186,0.0,3.0,99,0.00,,,0.61,Wunderground v.1.15,2013-05-09 03:35:00,
2013-05-08 23:36:00,57.2,56.9,29.98,South,186,0.0,3.0,99,0.00,,,0.61,Wunderground v.1.15,2013-05-09 03:36:00,
2013-05-08 23:37:00,57.3,56.7,29.98,SSW,200,0.0,3.0,98,0.00,,,0.61,Wunderground v.1.15,2013-05-09 03:37:00,
2013-05-08 23:39:00,57.2,56.6,29.98,ESE,115,0.0,3.0,98,0.00,,,0.61,Wunderground v.1.15,2013-05-09 03:39:00,
2013-05-08 23:40:00,57.2,56.6,29.98,ESE,103,7.0,7.0,98,0.00,,,0.61,Wunderground v.1.15,2013-05-09 03:40:00,
2013-05-08 23:41:00,57.3,57.0,29.98,ESE,105,0.0,7.0,99,0.00,,,0.61,Wunderground v.1.15,2013-05-09 03:41:00,
2013-05-08 23:42:00,57.2,56.9,29.98,East,87,0.0,7.0,99,0.00,,,0.61,Wunderground v.1.15,2013-05-09 03:42:00,
2013-05-08 23:45:00,57.3,56.7,29.98,East,84,0.0,7.0,98,0.00,,,0.61,Wunderground v.1.15,2013-05-09 03:45:00,
2013-05-08 23:46:00,57.2,56.6,29.98,East,84,0.0,7.0,98,0.00,,,0.61,Wunderground v.1.15,2013-05-09 03:46:00,
2013-05-08 23:47:00,57.2,56.6,29.98,East,99,0.0,7.0,98,0.00,,,0.61,Wunderground v.1.15,2013-05-09 03:47:00,
2013-05-08 23:50:00,57.2,56.6,29.98,ESE,120,1.0,6.0,98,0.00,,,0.61,Wunderground v.1.15,2013-05-09 03:50:00,
2013-05-08 23:51:00,57.2,56.6,29.98,ENE,65,1.0,6.0,98,0.00,,,0.61,Wunderground v.1.15,2013-05-09 03:51:00,
2013-05-08 23:52:00,57.2,56.6,29.98,East,90,0.0,6.0,98,0.00,,,0.61,Wunderground v.1.15,2013-05-09 03:52:00,
2013-05-08 23:55:00,57.2,56.9,29.98,East,93,0.0,6.0,99,0.00,,,0.61,Wunderground v.1.15,2013-05-09 03:55:00,
2013-05-08 23:56:00,57.2,56.6,29.98,East,90,0.0,6.0,98,0.00,,,0.61,Wunderground v.1.15,2013-05-09 03:56:00,
2013-05-08 23:57:00,57.2,56.6,29.98,East,95,4.0,6.0,98,0.00,,,0.61,Wunderground v.1.15,2013-05-09 03:57:00,